GFSNE_700_spd_000.txt.gz
Wind_Speed
38 39 43 45 46 45 46 45 45 46 44 36 35 31 30 33 34 33 35 34 36 39 40 44 50 51 48 48 49 51 51 48 45 43 43 44 44 39
39 40 41 43 46 46 45 45 45 45 47 39 36 32 29 34 33 33 34 35 37 38 42 48 52 51 50 50 52 50 47 44 42 41 42 40 39 36
42 39 39 41 44 46 46 46 46 45 46 40 37 36 32 36 36 35 34 35 39 39 46 51 55 51 52 52 49 46 43 41 40 40 38 36 35 33
46 42 39 40 43 45 47 47 47 45 44 42 36 34 34 38 36 35 36 37 40 43 48 53 56 51 51 49 46 42 39 38 38 35 32 32 31 31
48 48 42 39 41 43 46 45 45 46 44 41 37 34 35 38 39 38 38 39 41 45 50 54 56 51 50 47 42 37 35 37 33 31 30 28 27 26
50 50 46 44 39 41 45 42 44 45 43 42 37 35 35 38 35 41 40 40 42 46 51 57 55 50 47 42 37 34 34 31 30 29 28 26 25 24
52 51 47 48 44 45 45 41 44 44 41 43 37 35 36 37 37 42 41 42 45 45 52 58 51 49 44 38 32 32 30 28 26 26 26 25 24 23
47 53 49 47 47 49 45 41 44 43 39 41 39 35 36 33 37 43 41 42 45 47 53 52 47 44 40 33 30 29 26 24 23 25 25 24 23 23
43 51 54 51 47 46 45 40 44 41 37 43 40 36 33 37 39 41 42 43 45 49 55 45 44 41 39 32 31 28 24 24 24 25 25 25 24 24
43 46 49 50 50 43 47 40 41 40 35 41 40 37 35 37 41 42 43 42 46 50 47 42 41 37 35 33 31 27 24 25 26 26 26 25 26 26
35 43 47 46 49 40 45 42 38 42 40 42 35 37 34 37 41 42 41 41 47 50 39 40 36 32 30 31 30 27 26 27 28 27 27 26 26 25
46 38 46 39 40 40 42 42 40 40 39 35 34 35 36 38 40 40 40 43 44 44 36 37 33 28 25 25 26 27 27 28 27 27 26 27 27 25
46 40 39 41 44 41 39 41 40 39 36 36 30 35 35 39 37 38 40 43 44 35 36 32 29 27 23 21 20 23 27 28 27 26 25 27 29 29
40 44 42 39 40 42 40 38 41 36 35 31 32 34 34 37 36 38 41 41 36 32 32 28 24 25 23 21 21 23 24 28 29 28 26 27 28 28
36 38 37 31 37 45 40 38 37 35 30 30 36 37 30 35 35 37 40 40 28 31 27 23 23 22 21 22 23 24 26 24 27 28 27 26 24 20
28 29 33 34 34 42 40 39 35 32 28 32 35 40 26 34 32 37 39 29 27 27 23 21 21 19 19 23 26 27 28 30 28 29 25 20 20 18
29 25 32 37 40 36 40 40 37 34 30 33 37 36 30 33 34 34 32 22 26 24 21 20 17 19 22 23 23 27 27 28 30 27 19 13 18 18
38 19 23 31 32 29 32 36 40 36 34 34 35 31 31 30 31 32 22 22 22 19 19 18 17 20 23 24 28 29 27 25 23 21 18 17 16 20
37 25 16 19 26 25 31 33 33 31 34 33 32 29 27 28 29 24 16 20 17 16 16 14 16 20 21 23 26 28 23 18 17 17 19 21 21 21
26 26 19 21 19 26 30 29 29 32 27 31 28 25 24 23 25 14 16 15 13 14 12 13 18 21 23 23 23 24 24 20 17 14 14 14 16 18
21 21 18 18 20 22 29 31 32 31 32 28 23 21 18 22 17 10 14 11 11 10 11 15 18 21 21 22 21 20 22 23 21 19 20 19 17 16
18 22 25 22 22 22 28 30 36 35 25 25 20 15 17 16 7 11 9 8 8 8 12 16 18 19 19 20 21 21 18 18 25 28 29 29 26 19
22 20 25 27 27 30 30 25 28 25 26 20 14 13 14 8 6 7 5 6 4 7 11 15 17 18 19 20 22 20 22 25 24 24 26 25 25 24

GFSNE_700_spd_003.txt.gz
Wind_Speed
48 46 46 42 42 42 43 44 46 48 46 41 39 36 37 35 31 34 37 36 35 37 39 40 40 42 44 48 53 53 50 50 49 47 44 41 41 41
48 49 47 45 47 45 44 45 46 48 49 46 43 40 36 35 31 33 37 37 39 37 39 40 41 43 45 50 56 53 49 49 46 42 39 41 39 36
50 49 49 48 49 46 47 44 44 46 48 41 43 42 41 39 33 33 36 38 39 37 39 40 42 43 46 51 57 50 48 46 42 38 40 37 35 31
51 52 54 52 52 49 48 48 47 45 45 44 37 39 44 41 38 35 36 38 38 37 38 40 42 43 48 53 55 48 46 42 36 38 36 34 30 29
62 59 59 54 55 53 44 49 47 43 43 38 41 43 44 40 36 36 38 40 39 38 39 40 42 44 51 56 51 46 44 37 36 36 34 32 29 28
54 55 52 54 53 52 47 48 47 47 48 45 43 46 41 39 39 38 36 39 38 39 40 41 44 46 51 56 47 43 39 33 35 33 32 30 30 30
48 48 42 45 46 47 52 51 50 47 48 49 47 46 44 39 39 38 38 41 39 39 41 42 46 48 54 51 43 39 34 34 33 31 30 30 31 31
49 46 47 53 54 47 46 50 56 54 49 49 47 46 48 41 34 40 39 39 43 39 40 41 46 51 54 46 41 35 32 33 31 29 29 31 31 31
53 50 50 55 51 51 47 50 54 51 54 46 47 42 43 38 31 39 38 36 39 40 42 42 46 53 46 42 38 32 32 30 28 28 29 30 30 30
50 50 45 50 49 47 46 46 43 49 50 48 45 42 33 36 33 36 40 39 39 40 42 44 51 49 40 39 34 30 30 29 27 28 29 29 28 28
51 46 42 48 47 43 42 42 47 47 50 47 42 41 36 40 36 33 36 35 38 42 41 44 49 39 38 35 32 30 29 29 28 29 30 30 28 29
54 49 38 45 49 50 49 51 44 41 42 41 44 45 45 41 39 36 38 33 33 42 41 46 40 35 35 28 30 30 30 29 29 30 32 32 31 31
51 50 47 31 37 44 47 50 38 39 41 40 37 36 41 36 29 31 35 34 33 40 41 44 32 34 30 28 25 27 28 29 31 32 33 32 31 31
48 49 45 45 31 35 43 46 41 38 41 41 39 33 34 39 28 33 43 24 31 37 42 35 30 29 26 25 23 25 26 26 29 32 32 30 28 27
42 43 42 44 43 29 35 37 36 31 37 38 30 34 28 34 30 31 27 24 29 38 38 26 26 24 25 23 22 25 26 24 28 31 27 22 20 18
36 42 41 41 39 31 31 31 33 35 34 38 33 26 22 32 34 30 23 22 29 35 26 25 22 22 21 22 24 24 28 30 29 27 20 16 16 15
38 33 34 32 33 33 33 31 28 29 36 36 33 31 24 26 33 22 21 24 31 27 22 21 20 19 20 23 25 27 28 27 25 22 18 13 15 18
35 33 34 30 31 33 28 29 27 30 34 36 37 27 30 30 26 20 21 25 27 21 19 18 18 18 21 23 28 29 27 24 19 20 21 19 17 21
33 34 31 27 26 24 23 21 25 29 22 28 32 25 28 25 22 17 20 24 17 17 16 16 16 19 22 24 24 27 20 20 18 17 20 21 21 20
30 32 34 27 24 21 21 24 30 26 28 35 32 27 24 20 12 15 20 15 14 14 14 14 16 20 23 24 21 21 27 23 21 19 19 19 20 19
28 28 30 24 21 23 23 28 24 27 29 32 26 24 18 9 10 16 13 11 11 11 11 14 17 21 22 22 19 19 20 24 23 23 23 23 21 17
29 27 28 24 20 21 25 27 27 27 25 28 23 16 6 6 11 10 7 8 8 9 11 15 19 20 19 17 19 21 22 23 26 26 27 25 22 17
26 27 27 24 21 19 20 23 22 21 10 17 20 10 5 6 8 4 5 5 6 7 12 15 18 17 16 19 24 26 27 27 23 20 20 23 24 21

GFSNE_700_spd_006.txt.gz
Wind_Speed
45 44 45 44 46 45 45 46 51 51 49 47 46 39 38 35 35 35 38 35 35 36 37 36 34 34 35 38 39 42 45 48 52 54 48 46 45 41
47 48 49 49 47 46 46 49 50 51 57 46 46 43 41 39 36 36 38 33 38 37 39 36 35 35 38 40 41 44 47 50 54 52 47 44 40 39
45 47 49 48 47 47 45 47 54 50 57 50 43 43 42 40 38 39 41 38 40 39 39 35 35 36 39 40 41 44 48 52 55 48 45 41 38 38
43 45 47 49 51 54 55 54 55 57 54 51 42 41 41 39 39 44 39 35 42 40 38 34 34 39 39 39 40 44 48 52 50 44 42 39 36 34
47 46 47 47 49 50 52 50 49 53 53 50 48 40 49 40 41 45 42 34 36 41 38 36 35 33 38 39 41 44 47 53 45 43 38 37 34 32
51 50 48 46 47 45 46 47 45 47 48 55 50 47 50 56 46 42 47 41 39 37 40 38 36 37 37 39 42 45 52 47 42 39 36 35 33 30
51 51 51 50 49 47 47 49 52 55 53 50 56 53 50 53 53 40 47 41 43 37 39 38 32 36 37 40 42 47 49 42 39 36 35 32 31 28
46 48 50 51 50 50 48 48 50 52 53 56 54 54 52 55 47 39 46 42 48 35 35 36 34 36 39 41 42 51 42 38 35 32 31 30 28 27
43 43 47 49 49 51 49 51 53 57 52 51 51 57 61 49 50 43 43 43 39 34 33 35 38 38 39 40 45 47 38 35 32 30 29 27 26 27
42 42 44 45 46 50 53 51 55 55 52 53 52 47 51 57 50 39 34 35 37 36 37 32 41 39 37 40 45 40 35 32 30 28 27 25 27 27
44 44 44 46 45 46 47 56 56 53 52 51 52 47 49 50 52 41 37 36 36 35 36 36 36 36 38 40 39 35 32 29 27 26 25 26 28 29
43 44 45 44 44 45 45 43 54 50 51 50 54 59 49 42 40 50 36 41 41 36 33 39 31 32 37 37 32 32 29 27 25 24 26 28 30 30
44 44 45 47 45 43 40 40 43 38 41 36 45 50 33 37 42 37 53 40 35 31 28 30 29 32 35 30 28 28 26 24 24 25 27 28 30 30
41 42 46 45 42 42 39 36 36 36 37 39 41 38 33 37 39 28 34 33 24 25 26 26 28 31 25 24 24 24 23 23 24 25 28 29 28 25
39 41 41 39 38 40 37 36 34 35 37 31 34 31 38 32 33 26 27 22 19 20 19 22 26 23 22 21 21 21 21 22 24 27 28 24 22 19
36 37 38 36 35 32 35 28 29 33 31 29 35 29 32 27 16 11 14 26 17 15 17 21 20 19 19 20 17 18 23 24 25 25 22 18 18 17
37 38 37 36 34 31 27 26 31 26 29 32 31 26 26 21 18 14 17 14 13 14 17 18 15 16 18 16 17 22 23 24 24 20 20 17 16 19
36 36 35 36 35 35 29 27 26 21 23 28 29 33 28 29 18 14 14 10 11 13 15 14 14 15 13 18 22 24 23 22 20 20 21 19 17 20
33 33 35 36 32 32 32 29 23 21 24 29 22 29 22 26 17 12 8 8 11 11 10 11 11 12 16 19 22 27 19 21 22 21 22 22 19 21
29 31 33 33 32 30 28 22 19 22 22 18 20 16 17 17 8 5 5 7 7 7 9 9 11 15 19 21 17 20 28 24 23 21 22 22 21 21
26 27 30 32 32 31 26 18 16 19 17 9 11 11 14 10 6 2 4 4 5 5 7 10 14 18 20 19 20 19 23 30 29 26 23 21 15 13
23 24 27 28 31 31 23 17 13 11 15 7 7 12 13 9 3 2 3 5 4 6 8 13 17 18 17 21 23 26 24 23 26 26 27 23 20 16
20 22 24 25 29 31 24 18 10 5 5 13 17 17 12 6 6 4 5 5 6 7 11 14 15 17 20 22 24 25 26 24 19 15 15 13 12 7

GFSNE_700_spd_009.txt.gz
Wind_Speed
43 44 45 45 45 46 49 50 53 58 56 51 47 43 43 42 38 32 33 37 36 34 33 38 37 40 37 37 38 38 37 37 39 42 46 48 49 50
45 46 47 46 46 48 51 53 52 52 59 54 50 51 51 51 44 39 37 40 36 43 40 39 36 39 39 42 38 41 38 38 41 44 47 47 51 48
47 47 47 46 46 47 48 50 53 53 57 61 59 57 56 53 47 44 36 36 36 45 49 42 37 38 40 44 35 41 40 39 42 44 46 48 51 45
52 53 52 50 50 49 50 54 58 55 55 59 57 54 56 49 47 45 40 39 40 45 50 46 44 42 38 39 41 39 39 42 42 43 47 50 46 42
49 50 51 50 51 50 50 51 49 51 53 54 57 54 52 54 52 50 45 45 47 49 50 39 47 44 41 39 40 39 41 42 40 43 46 50 42 39
49 48 46 46 48 50 50 52 52 52 52 52 55 57 55 61 53 50 49 50 50 50 47 41 44 44 37 41 38 43 38 40 40 43 49 43 39 36
47 46 45 44 45 45 48 49 49 53 54 53 54 53 57 54 66 54 50 53 54 53 46 48 43 42 40 39 42 39 34 39 41 43 44 39 36 34
46 47 46 46 45 46 47 46 47 50 54 55 55 55 53 59 48 61 49 56 61 47 46 51 48 46 35 38 41 36 35 37 39 42 38 36 33 32
45 45 44 44 43 45 47 48 49 50 50 54 57 56 55 51 54 50 57 58 43 52 43 48 44 45 42 36 45 37 30 34 39 36 34 32 31 29
44 43 44 43 42 44 45 46 46 49 51 51 53 56 55 53 49 53 58 47 54 45 41 46 40 38 36 38 38 32 30 35 35 32 30 29 27 24
46 42 42 44 42 42 45 47 46 47 47 49 48 50 50 49 51 45 51 51 54 56 42 38 37 36 40 40 36 29 31 32 31 27 27 26 24 24
48 43 42 41 41 40 43 46 48 43 43 44 45 45 39 42 47 52 51 56 49 41 38 37 38 33 34 34 26 26 29 29 26 25 24 23 24 26
48 45 42 39 39 40 39 41 44 44 44 41 40 37 35 34 35 41 44 40 35 36 41 37 45 33 28 23 21 26 26 26 23 23 22 23 25 28
43 41 38 37 38 39 37 37 41 43 43 37 39 36 33 36 39 34 35 35 29 33 30 35 27 22 18 19 22 25 24 23 20 21 23 25 27 28
36 35 32 34 36 35 34 34 36 36 35 35 35 33 33 33 32 29 29 28 26 19 19 18 15 14 17 19 21 22 21 20 21 23 24 26 26 25
32 29 28 29 31 33 33 32 31 31 31 35 36 32 27 21 19 20 13 12 17 16 14 11 12 14 15 15 16 19 18 21 23 25 24 25 23 22
33 29 28 28 31 32 32 32 27 30 30 28 35 30 26 16 14 14 13 7 8 10 8 8 9 11 12 12 14 17 20 21 22 24 21 20 21 18
30 29 28 27 30 33 33 33 27 27 25 23 24 24 22 18 12 14 13 11 10 6 5 5 9 9 11 12 15 19 21 21 22 20 20 19 19 22
27 28 28 26 28 31 33 35 29 23 19 21 19 17 17 12 8 8 11 9 4 4 4 6 7 7 10 15 17 19 18 17 19 20 22 22 18 22
26 27 24 23 25 30 32 34 26 19 15 12 9 7 3 11 15 15 11 7 5 5 3 3 4 8 12 14 15 20 20 19 20 20 22 24 21 19
24 25 22 21 23 28 32 31 24 17 10 5 2 12 21 22 18 11 8 7 5 2 1 3 8 11 12 13 14 15 21 26 24 21 16 15 15 16
24 24 20 19 22 26 31 29 24 16 7 8 18 24 23 19 13 11 9 7 6 4 5 8 10 11 13 14 17 18 16 16 19 17 14 7 7 10
23 22 18 18 20 24 30 27 23 14 6 22 26 25 19 15 14 11 10 9 7 7 8 10 13 14 15 16 15 12 12 14 13 13 9 8 5 4

GFSNE_700_spd_012.txt.gz
Wind_Speed
51 51 52 52 52 53 51 50 52 54 54 55 58 57 54 49 47 46 48 50 48 46 48 40 41 45 45 43 43 45 45 47 45 43 41 40 42 43
51 52 53 54 55 55 54 55 54 57 65 62 61 58 54 53 49 48 50 54 52 51 51 48 47 47 49 47 50 48 48 47 45 44 42 42 42 43
49 50 51 51 53 54 56 57 58 57 59 65 62 61 60 58 56 53 52 53 51 49 49 52 50 51 50 51 56 46 50 48 47 46 42 43 43 44
51 52 52 51 49 48 50 54 56 57 59 64 65 64 62 59 57 55 53 51 51 52 59 49 50 47 47 54 49 54 55 48 44 45 39 41 43 44
49 51 52 51 51 50 50 50 50 51 53 57 62 62 63 61 61 60 57 53 53 51 48 47 53 52 51 45 57 58 58 56 43 47 43 45 40 42
48 50 51 52 52 53 52 51 50 51 52 51 52 55 57 59 59 61 59 58 59 51 52 53 52 56 53 45 53 47 59 54 48 44 44 46 37 40
48 50 52 53 53 53 52 53 53 54 53 52 53 52 55 53 54 54 55 54 52 51 48 41 45 46 48 51 54 54 53 48 52 46 46 42 38 37
51 51 51 51 53 54 52 52 51 52 54 54 54 54 56 56 56 55 56 54 55 52 49 47 45 48 52 52 49 47 50 47 49 49 46 39 36 36
53 52 52 50 50 51 51 52 51 50 49 51 52 53 55 54 54 53 52 53 55 52 48 52 43 37 49 49 53 52 45 57 45 41 41 33 34 32
51 50 52 52 47 46 48 50 50 49 46 47 49 50 52 53 52 51 52 52 53 51 48 49 41 36 35 42 47 42 49 47 42 38 32 30 30 31
48 48 49 49 45 42 45 47 49 46 44 46 45 47 48 48 48 48 51 48 50 48 49 47 46 46 50 46 37 41 42 40 39 30 27 27 28 29
47 47 46 43 42 40 40 42 45 43 44 43 41 43 43 43 43 44 45 48 49 49 48 43 43 43 42 43 36 37 36 35 29 25 25 26 28 26
48 47 45 40 37 36 36 37 39 41 41 43 43 43 43 42 38 36 42 40 48 42 40 38 41 32 33 33 36 34 29 28 24 22 23 26 26 23
46 45 44 37 33 33 33 33 34 37 39 39 38 42 39 36 31 35 41 38 38 37 30 41 31 27 30 35 31 27 25 23 20 22 25 24 22 22
41 42 41 34 32 31 29 29 32 35 37 37 35 37 36 36 34 35 35 33 27 25 22 22 17 15 22 23 21 21 21 18 21 21 21 21 21 22
40 38 37 32 31 29 29 29 31 33 35 35 34 32 31 29 27 24 18 12 8 6 8 7 13 14 16 17 17 18 18 18 18 20 19 20 22 24
41 38 36 32 31 28 27 30 30 34 33 30 29 28 27 21 16 13 3 4 3 5 6 12 12 13 12 13 16 15 16 16 16 18 19 20 21 23
38 37 35 33 31 30 30 31 31 35 33 28 24 24 20 14 10 4 7 6 8 12 10 9 9 9 9 10 11 12 12 15 17 18 19 19 20 24
36 35 35 32 30 29 30 32 36 37 31 26 22 22 16 11 8 14 12 12 11 7 6 5 6 5 6 7 9 11 13 15 16 18 20 21 19 24
33 32 32 29 29 29 30 32 38 35 28 23 20 16 9 10 17 15 14 12 8 6 6 4 3 2 4 8 10 11 13 16 17 18 21 23 23 23
29 28 29 27 28 29 29 32 38 31 25 18 11 6 16 21 21 17 11 10 8 6 4 2 2 4 5 7 10 14 16 14 15 14 14 16 20 19
28 28 26 26 27 28 27 33 34 26 18 9 6 17 21 20 18 17 14 12 9 6 3 1 1 3 5 7 8 9 10 11 10 8 6 7 7 11
27 26 25 25 26 27 27 33 29 20 10 7 17 19 19 20 18 16 14 11 7 6 5 2 3 4 5 6 7 8 9 9 9 6 6 7 6 5

GFSNE_700_spd_015.txt.gz
Wind_Speed
54 53 52 51 53 55 57 58 54 61 64 63 60 58 59 59 62 59 54 52 54 52 50 53 54 55 59 56 52 50 48 49 49 50 51 50 49 49
53 53 53 53 53 52 52 54 56 59 63 66 66 64 61 60 59 57 55 51 49 50 51 56 57 57 56 55 55 54 52 52 51 53 53 52 51 51
51 52 52 52 53 52 52 53 54 56 60 62 63 64 64 64 62 61 60 59 56 52 50 52 57 56 51 56 58 56 55 54 53 56 58 54 53 52
49 49 50 51 52 52 53 54 53 53 57 60 58 59 60 58 58 60 60 58 58 55 52 52 50 49 50 52 60 60 57 58 58 60 59 58 56 54
49 50 50 50 50 53 54 56 58 59 57 57 59 59 56 55 56 56 55 53 53 56 48 50 52 50 52 55 54 61 58 60 59 58 61 60 65 62
49 49 50 51 52 54 56 58 61 63 62 61 59 60 57 56 55 55 56 53 54 50 52 49 46 47 47 51 55 46 55 62 55 59 61 58 56 58
50 50 51 52 52 53 57 58 60 62 63 64 63 60 59 57 53 52 54 54 56 54 49 47 45 42 43 40 46 40 51 57 55 53 54 52 59 56
54 53 52 52 53 53 54 56 58 59 61 60 61 60 59 55 53 52 52 53 58 52 51 51 44 43 41 39 46 43 49 35 43 53 56 51 46 54
54 54 53 51 51 50 48 49 52 54 55 55 57 57 58 53 52 51 51 51 53 51 50 50 46 44 40 38 39 40 42 39 40 44 50 49 49 48
53 51 50 49 47 47 49 52 51 48 47 48 51 52 52 52 51 51 51 52 53 52 50 52 48 48 45 40 34 39 32 29 38 41 47 47 48 41
50 48 47 47 47 46 49 50 45 42 39 42 45 47 47 48 48 50 51 51 55 53 50 49 48 45 45 41 36 41 37 38 40 44 44 45 42 38
49 48 46 45 45 44 44 43 43 41 39 38 38 39 40 42 43 43 43 44 46 53 50 45 44 40 45 42 40 44 43 46 38 33 34 37 37 36
49 49 47 45 43 41 38 37 38 38 37 40 42 39 39 39 40 39 37 38 41 45 42 43 48 41 40 42 36 38 41 41 38 34 33 33 34 28
46 46 45 44 41 39 36 33 33 34 36 40 40 43 41 38 34 34 34 35 36 40 38 44 45 41 43 36 35 33 30 35 31 30 32 33 26 16
44 44 43 42 40 38 33 32 32 33 35 39 43 41 36 33 30 33 33 37 35 38 38 35 36 30 27 27 24 18 24 29 29 31 29 17 14 20
45 44 42 40 38 37 32 30 30 31 36 41 41 37 35 31 28 29 29 24 18 17 19 19 20 20 18 16 14 17 22 26 25 16 12 18 20 20
47 44 42 41 39 36 32 31 30 32 36 41 41 37 33 28 25 24 17 7 1 1 2 6 10 11 14 15 17 19 15 10 13 15 15 16 18 20
43 42 41 40 38 36 35 34 32 33 40 42 38 33 27 23 21 16 9 4 3 3 7 10 10 12 11 7 7 9 10 11 11 13 15 18 21 24
40 38 37 37 36 34 34 34 35 38 43 40 33 26 21 18 14 9 8 5 6 7 9 9 10 7 6 6 8 9 10 12 13 15 17 19 21 24
37 36 35 34 34 34 33 34 36 42 40 34 26 21 15 7 6 10 10 9 12 15 11 8 8 7 6 6 7 8 10 10 12 14 16 17 19 22
34 33 32 32 32 32 32 32 39 41 35 24 17 7 5 11 15 16 17 18 15 12 10 6 3 2 3 4 5 6 8 8 9 12 14 16 17 19
32 31 29 29 30 31 32 34 41 35 22 13 9 13 17 18 22 21 16 13 11 8 5 3 1 1 2 3 5 6 5 5 7 9 11 13 15 15
30 28 28 28 29 31 31 38 36 22 11 12 13 19 23 20 17 15 13 10 8 6 5 5 4 4 3 4 4 6 7 7 8 10 12 12 11 9

GFSNE_700_spd_018.txt.gz
Wind_Speed
54 54 54 54 54 53 53 54 56 61 61 59 61 59 59 58 56 56 58 59 57 56 53 51 54 55 52 55 60 67 58 51 49 48 48 49 50 51
51 51 51 51 51 52 53 53 52 54 58 54 54 55 56 58 58 58 56 58 59 58 57 54 51 51 51 52 59 60 60 59 57 55 50 52 52 53
51 51 51 51 51 51 51 52 53 53 56 54 54 53 53 54 54 56 56 56 56 56 54 54 55 54 54 54 52 55 53 56 55 57 49 52 56 57
55 54 54 55 55 55 55 55 57 57 58 62 58 58 59 58 58 59 56 55 54 54 51 47 45 49 51 52 51 49 49 53 52 51 57 56 56 57
57 55 54 55 55 56 57 58 58 60 61 62 64 62 63 63 64 62 60 57 54 53 52 46 45 44 45 48 47 49 49 50 55 53 50 52 57 58
56 55 55 55 55 56 57 58 58 59 60 62 64 64 64 64 66 66 65 59 56 52 52 51 47 43 45 45 47 45 44 43 43 53 54 53 58 60
58 57 55 54 54 54 55 55 56 57 58 59 61 62 62 62 64 63 61 60 56 52 51 49 45 42 41 40 42 44 41 41 43 36 45 48 43 51
57 55 54 53 52 51 50 49 50 51 52 52 55 57 56 56 56 54 54 54 59 50 50 49 43 43 39 36 38 41 46 40 43 37 38 43 45 52
56 56 54 51 51 50 49 47 45 44 43 47 51 51 50 47 47 48 47 48 51 48 44 49 41 44 40 37 32 33 38 43 34 35 36 41 32 46
54 52 51 50 48 48 48 48 47 45 43 42 43 42 41 37 38 44 48 49 48 43 40 48 41 42 40 39 35 38 36 41 41 35 30 40 33 36
48 47 45 46 47 45 45 48 47 44 39 37 37 37 36 36 37 42 44 45 46 43 38 42 41 43 41 39 35 33 32 35 39 30 31 29 36 29
46 46 45 46 44 41 45 45 45 42 39 36 33 33 33 35 37 38 44 42 40 42 36 40 40 39 40 37 30 28 27 28 30 31 30 33 32 37
47 47 46 46 43 44 42 41 42 40 38 37 36 35 36 35 39 40 35 35 38 38 34 36 40 39 36 33 27 28 28 28 32 33 34 33 37 37
46 46 46 45 45 43 41 39 38 37 36 36 36 36 37 43 40 35 30 32 35 38 37 37 40 37 34 32 32 30 31 28 27 30 31 34 33 29
46 47 46 45 43 39 37 37 36 34 34 35 38 40 43 44 39 33 29 27 28 30 32 33 33 36 37 35 32 26 28 29 30 29 28 30 29 31
46 49 46 43 40 37 35 33 32 32 35 36 40 44 46 40 33 27 24 22 23 22 19 20 22 22 22 22 21 22 22 23 28 28 25 26 27 28
48 46 44 41 38 35 33 32 32 33 35 39 45 45 40 33 24 20 17 17 11 5 3 3 4 10 13 12 13 17 15 17 19 21 22 25 22 17
46 44 40 37 35 35 35 35 34 35 39 45 43 38 32 24 18 13 11 5 1 4 4 5 8 8 7 10 18 19 20 20 19 18 17 18 21 23
43 39 35 34 33 34 35 36 37 39 45 40 34 29 22 16 10 3 2 5 7 8 7 11 14 16 18 12 10 13 18 17 18 19 19 19 21 22
38 35 32 31 31 33 35 36 38 44 38 31 25 19 15 9 5 8 11 13 16 17 15 13 12 12 12 12 10 12 13 13 14 15 15 16 17 18
34 30 28 28 30 32 34 35 42 36 28 22 17 16 12 13 17 21 23 21 15 10 9 9 8 6 5 5 5 6 7 9 11 12 14 15 16 16
31 27 26 27 29 32 32 39 35 25 19 15 17 18 21 23 22 19 15 12 9 8 7 7 6 5 4 4 3 4 6 8 10 12 13 14 15 16
28 25 24 26 29 30 34 37 23 17 14 16 20 20 15 15 15 14 12 11 9 7 6 6 6 5 3 1 2 3 5 6 8 10 11 11 11 11

GFSNE_700_spd_021.txt.gz
Wind_Speed
49 50 51 52 53 54 55 55 55 61 64 55 59 56 55 53 52 51 50 49 49 50 52 53 54 58 59 56 58 55 55 70 67 74 65 67 50 49
53 54 55 55 55 55 55 55 54 54 59 58 58 59 59 57 55 53 52 50 50 49 50 51 52 54 53 53 52 54 50 54 51 50 58 57 60 49
58 59 58 57 56 56 56 57 57 57 58 62 60 60 61 61 59 58 56 56 54 54 52 51 52 51 52 52 51 52 55 56 52 49 47 55 55 56
61 61 60 59 58 57 58 58 59 60 61 64 63 62 62 62 63 62 60 59 59 58 57 57 53 52 50 47 49 50 50 54 53 52 49 48 48 60
60 59 58 57 55 54 54 55 56 57 58 58 62 61 62 62 63 62 61 62 60 61 62 60 56 52 50 48 46 48 48 48 50 51 49 48 50 52
57 56 54 53 53 53 53 53 54 55 55 57 59 59 59 58 57 58 59 57 60 60 60 60 56 51 48 48 46 44 47 46 47 48 48 48 50 49
56 54 54 52 50 47 47 48 48 49 49 49 51 52 53 53 52 51 53 53 52 50 51 51 48 45 47 45 45 45 45 45 47 49 49 47 49 47
57 55 53 50 45 42 42 42 41 42 43 42 46 50 50 48 47 47 47 43 41 33 37 40 34 36 38 39 38 40 43 45 45 44 46 46 46 45
55 51 47 43 42 43 43 43 42 42 43 45 46 46 49 43 41 40 39 38 40 36 36 42 33 34 29 32 33 34 37 40 44 45 44 46 44 41
47 44 42 43 44 44 44 41 42 43 40 40 43 44 41 38 36 36 37 39 40 38 39 45 35 32 25 29 29 30 34 39 41 45 46 46 44 41
43 42 42 43 43 43 37 44 44 39 39 38 38 36 34 32 32 34 37 41 44 41 39 42 31 29 23 21 22 26 30 34 36 40 43 43 43 38
45 44 43 42 42 37 44 44 44 41 40 38 33 31 31 31 32 35 38 41 41 41 34 32 28 27 27 20 18 20 25 29 32 35 38 39 41 33
46 46 45 44 39 43 40 40 40 41 41 39 38 36 33 33 35 36 41 38 36 36 29 30 30 26 28 27 22 17 19 24 25 25 30 32 33 27
47 47 46 43 41 39 37 35 36 38 39 39 38 36 36 38 40 42 37 33 30 31 27 25 29 27 28 25 21 18 15 16 20 18 26 23 25 21
47 47 45 43 40 35 32 32 34 35 36 36 37 40 42 44 41 35 30 26 24 22 22 22 24 25 25 23 22 20 17 17 16 16 17 17 21 31
49 47 44 40 34 32 30 29 31 33 36 39 42 44 42 37 32 28 22 17 15 14 15 14 16 19 20 20 18 20 19 19 17 20 17 19 23 24
48 45 40 36 31 28 28 30 31 33 38 41 41 37 34 30 23 16 13 11 9 6 5 8 4 2 8 12 14 17 19 18 21 27 26 23 21 20
44 41 37 32 30 30 31 32 32 38 39 35 31 30 27 21 16 12 9 7 5 7 8 9 11 11 7 9 16 17 19 20 26 26 23 21 22 27
38 36 32 29 28 30 32 34 40 38 31 27 26 24 19 16 14 10 9 12 15 15 15 15 17 21 18 20 25 26 20 22 23 23 21 21 24 26
34 32 28 27 28 30 32 37 37 29 25 24 21 18 18 16 14 15 19 22 25 24 20 17 16 16 19 17 19 22 24 23 22 23 23 24 23 24
31 28 26 26 28 30 34 37 27 24 23 19 16 16 17 18 19 21 21 17 14 13 13 13 12 13 14 14 14 15 17 19 22 20 19 20 19 19
29 26 24 25 28 30 36 26 21 19 16 15 18 19 17 14 13 12 12 12 11 11 10 10 9 9 10 10 12 12 13 15 15 16 19 19 19 19
27 24 23 25 27 33 27 20 18 17 16 17 14 14 13 13 12 13 13 12 11 10 9 9 9 8 7 7 8 9 10 11 12 14 15 15 15 16

GFSNE_700_spd_024.txt.gz
Wind_Speed
51 53 55 57 58 59 59 60 62 69 73 68 68 65 64 63 62 63 63 63 60 56 53 56 57 57 56 58 60 60 59 61 68 69 66 36 44 62
55 58 58 58 58 57 57 57 57 59 65 66 66 65 65 64 64 62 63 65 62 60 57 55 55 54 53 53 54 55 57 56 54 61 62 62 54 50
57 58 58 57 57 56 56 55 55 55 57 61 60 58 59 60 61 61 61 64 65 62 58 57 57 56 55 54 53 53 53 55 51 50 53 54 53 45
59 59 58 57 56 55 54 55 56 55 52 55 59 57 56 56 57 57 58 58 59 61 59 59 55 56 57 56 55 54 52 52 52 50 50 52 52 57
61 60 59 57 56 55 54 53 51 49 49 43 54 52 52 53 55 55 55 56 52 52 53 53 54 54 55 54 54 54 53 52 51 50 48 47 52 54
61 58 55 54 53 51 49 47 46 47 47 48 46 43 43 46 49 53 54 50 51 48 47 44 46 49 51 52 53 52 53 52 51 50 49 46 47 50
58 55 52 50 48 45 44 45 46 46 44 37 41 44 48 52 51 50 51 50 47 43 40 36 37 38 40 43 47 49 49 51 51 51 51 49 48 48
57 53 49 46 45 44 44 43 42 41 41 39 45 53 52 51 49 49 48 46 47 33 35 34 32 35 35 34 39 43 45 48 51 52 51 47 48 46
52 50 47 46 45 46 45 44 42 39 36 44 53 50 51 47 47 45 43 40 42 36 38 39 29 35 29 31 32 38 45 48 50 52 50 49 49 48
50 48 46 45 44 45 45 42 41 45 47 45 45 46 44 43 41 42 43 43 42 39 40 43 39 39 34 30 29 34 41 47 49 48 48 49 48 46
48 46 45 45 45 43 42 44 49 47 41 39 39 39 39 38 38 40 40 44 46 43 40 41 40 35 31 25 22 25 33 42 45 45 45 43 44 46
47 46 47 46 44 43 46 48 48 44 43 40 39 38 37 37 37 39 43 45 47 49 39 36 35 29 26 19 20 20 30 38 41 42 44 45 43 44
50 49 48 45 45 45 42 42 42 42 41 42 42 41 40 39 40 40 40 40 43 43 33 33 31 25 24 21 14 15 17 27 34 39 40 38 38 39
50 49 47 47 46 42 39 37 37 38 40 42 43 43 44 44 42 39 35 33 33 34 30 27 27 24 22 18 13 13 14 22 28 32 32 33 31 26
48 47 46 46 42 37 33 33 34 36 39 41 44 44 41 38 35 32 27 24 24 22 21 20 20 20 21 18 15 15 13 17 22 21 20 19 24 26
46 46 44 41 37 34 31 30 32 35 40 42 41 37 34 32 28 23 21 16 14 12 12 14 14 17 16 14 12 15 18 20 15 18 21 20 22 23
46 43 41 38 35 30 28 30 32 38 36 33 31 31 29 26 21 16 15 15 12 9 7 5 6 5 6 10 12 18 24 21 19 13 12 12 20 27
41 39 38 35 31 29 31 32 37 32 30 28 26 25 23 20 18 17 14 12 11 12 12 11 11 6 6 11 16 20 24 25 21 22 19 15 22 23
36 35 34 30 28 29 31 37 32 27 24 23 23 22 18 18 17 14 15 18 20 22 23 24 23 17 12 15 19 21 22 23 25 23 21 18 18 22
33 33 29 27 27 29 34 31 24 22 21 21 19 18 18 18 17 17 19 18 16 15 16 17 19 20 18 19 23 25 19 20 20 19 17 17 21 28
32 29 25 25 27 31 33 23 20 20 20 22 23 22 21 19 18 17 15 14 14 13 12 11 11 14 16 17 20 25 24 19 17 17 22 23 25 27
29 25 23 25 28 33 22 18 17 18 20 19 20 20 19 18 16 15 14 12 11 11 10 9 9 11 12 14 15 17 21 25 24 22 20 17 16 19
26 23 23 25 31 24 17 15 17 18 20 20 20 19 19 18 16 13 12 12 11 10 9 8 8 8 9 11 13 14 15 17 17 17 18 19 20 21

GFSNE_700_spd_027.txt.gz
Wind_Speed
48 51 53 55 58 59 60 61 62 71 75 71 68 63 61 60 59 56 57 57 57 57 58 63 65 62 59 58 62 62 64 69 72 71 62 63 64 67
51 54 56 57 60 60 60 59 58 58 66 66 64 62 59 58 54 51 51 52 52 51 51 51 55 59 59 59 59 60 58 60 64 62 57 54 52 52
54 56 58 59 60 59 57 56 56 54 55 61 59 57 53 53 54 53 51 50 50 48 48 49 49 51 50 52 57 57 58 57 56 56 53 48 46 46
56 58 59 59 58 57 56 54 53 51 49 51 54 53 53 52 53 51 48 46 49 50 48 48 47 48 47 46 50 55 56 57 56 54 51 48 44 43
57 59 59 58 57 54 52 51 50 48 46 46 54 52 52 49 48 48 51 55 54 50 48 47 47 47 45 42 44 48 52 54 55 55 51 48 44 41
59 59 58 56 54 52 51 50 48 48 48 50 49 48 46 46 47 53 59 53 52 49 49 45 43 42 42 39 37 39 43 48 51 52 53 49 46 42
58 57 56 54 53 50 47 47 46 46 47 48 48 48 50 50 57 57 56 54 51 48 44 40 37 32 34 35 35 33 36 40 46 51 50 48 47 44
58 57 55 52 50 47 47 47 41 42 44 46 49 53 58 57 54 53 53 52 53 42 44 41 38 36 34 34 33 33 35 37 43 46 48 47 46 44
55 55 53 50 49 49 49 48 46 43 39 49 53 55 56 49 49 50 49 49 49 46 46 44 41 40 37 36 33 32 33 36 40 44 45 44 45 44
53 52 51 51 50 49 48 49 47 50 50 47 46 47 45 45 45 48 49 50 50 46 45 51 47 45 43 41 35 30 28 31 37 43 43 44 43 44
52 51 50 51 50 46 45 48 54 50 44 41 40 40 41 42 43 47 47 50 52 51 49 50 48 45 42 35 26 23 25 28 33 39 41 45 46 47
53 52 50 49 47 45 46 51 50 45 43 41 40 41 42 43 43 43 46 49 51 54 43 44 43 38 35 26 15 8 16 24 23 32 40 46 49 50
54 53 51 50 44 47 45 44 41 40 41 42 45 45 46 45 42 39 37 38 42 45 35 34 33 29 28 28 15 12 17 20 24 30 34 35 36 41
53 52 51 47 47 44 41 37 35 37 40 43 46 45 41 38 37 35 33 31 30 33 29 25 28 26 25 21 14 8 12 15 16 21 24 25 27 29
50 49 46 45 42 39 34 33 34 37 41 44 41 37 35 34 31 28 26 24 23 22 20 19 20 20 21 18 10 6 8 8 11 11 17 19 22 25
48 47 43 40 37 33 30 30 33 38 38 36 34 33 30 29 26 24 23 22 21 18 17 17 16 15 15 13 7 7 10 12 13 10 10 11 12 16
46 43 40 38 33 29 30 32 37 32 30 28 29 28 26 25 22 21 21 19 18 16 14 14 13 10 5 3 6 12 15 20 20 12 10 12 12 17
41 40 37 33 30 31 33 37 30 27 25 25 24 24 23 22 21 20 18 19 18 19 23 23 15 6 5 7 10 16 17 19 17 13 6 8 18 20
37 35 32 29 29 31 36 31 26 23 23 24 26 27 26 25 24 24 23 22 22 23 25 25 23 15 11 10 13 15 18 16 14 11 12 13 25 27
34 32 28 28 29 33 31 25 21 21 24 24 25 26 25 23 23 21 21 20 20 21 20 22 21 18 13 15 20 22 17 15 14 15 15 15 16 22
32 28 26 27 30 31 24 21 21 23 23 26 24 24 23 22 20 20 19 18 16 14 14 15 16 19 14 17 23 24 20 14 11 10 11 12 16 25
30 26 25 27 31 25 21 20 19 22 23 23 23 23 22 20 18 16 16 15 13 12 12 11 11 13 16 14 17 20 19 15 13 13 14 13 22 33
28 25 25 29 25 21 19 18 20 22 22 22 24 23 20 17 15 14 14 12 10 9 8 7 8 9 11 13 13 15 18 19 19 19 19 21 21 24

GFSNE_700_spd_030.txt.gz
Wind_Speed
44 46 48 49 51 53 55 57 61 70 71 66 67 62 60 57 54 49 48 47 46 46 47 48 48 48 48 53 53 51 54 63 64 67 69 71 78 75
47 49 50 51 53 54 56 57 57 59 69 65 65 62 58 56 54 51 50 49 47 44 43 41 40 41 44 45 47 46 49 53 60 63 63 63 67 74
49 51 51 52 54 55 56 56 57 56 59 64 61 58 56 55 54 53 50 49 48 45 42 43 47 48 47 45 44 45 46 43 49 56 59 57 60 63
50 52 52 53 54 55 55 56 56 54 54 57 57 57 55 52 53 52 51 48 48 47 50 51 46 46 42 43 45 43 42 39 43 49 53 58 56 55
51 52 52 53 55 55 55 55 54 53 52 53 58 56 55 52 53 52 52 53 54 56 51 45 45 44 43 44 43 41 41 41 39 40 45 53 51 51
50 51 52 54 55 54 54 53 52 52 54 52 52 59 56 53 56 58 62 58 55 51 47 44 43 37 36 35 35 35 36 36 35 39 34 43 48 47
51 52 53 54 52 51 49 49 50 51 47 50 55 52 57 58 60 58 56 53 50 49 47 40 39 38 34 33 33 34 35 35 36 37 37 31 36 46
53 53 54 53 52 51 50 49 44 41 47 50 51 58 60 55 50 49 49 51 54 46 47 42 43 38 36 34 34 33 32 34 33 37 39 41 42 44
53 54 54 53 51 51 51 49 47 45 44 50 55 52 50 44 45 48 48 51 52 51 49 49 46 45 42 41 41 38 38 36 35 37 39 37 41 43
53 54 53 53 52 51 49 47 45 50 48 45 46 43 41 42 44 48 51 53 54 51 47 50 48 50 45 42 40 37 35 33 35 37 40 40 42 42
55 54 53 53 52 48 42 46 52 47 42 39 37 37 40 43 44 46 45 46 48 46 41 42 41 41 37 32 28 20 16 21 25 30 34 36 38 41
55 54 53 51 48 40 42 47 46 42 40 40 40 41 41 38 35 35 38 41 43 45 33 38 36 33 35 24 19 14 18 21 25 27 30 31 34 41
54 53 51 46 41 43 39 39 38 37 39 42 44 40 35 34 33 32 31 33 37 39 33 33 34 31 31 32 20 14 14 20 23 24 25 24 26 36
51 50 45 42 41 38 35 34 33 36 40 42 37 36 35 34 31 30 28 27 26 30 30 27 29 28 27 25 19 8 7 11 13 16 21 19 16 23
46 43 41 40 37 34 30 30 33 37 36 34 34 33 32 30 28 27 25 24 24 23 24 25 25 21 20 20 14 4 2 2 7 10 6 8 11 14
44 43 39 36 33 29 27 29 33 29 30 31 31 30 28 27 26 26 26 27 26 26 27 25 21 17 13 11 5 5 5 12 10 11 9 9 13 14
43 40 37 33 29 27 29 32 26 26 28 28 29 29 28 26 25 24 25 26 28 29 28 26 21 13 8 6 10 8 7 12 11 5 5 11 17 18
39 37 34 30 29 30 34 28 25 26 27 28 29 29 30 28 26 24 25 26 27 27 30 30 24 14 11 13 14 12 12 14 14 8 2 11 18 18
35 34 30 28 29 33 29 27 27 27 28 27 26 28 28 26 25 25 25 24 23 25 28 28 25 19 15 18 20 22 21 22 17 12 12 11 13 16
33 30 28 28 31 30 27 26 26 26 25 25 26 28 27 24 23 22 22 23 22 22 23 27 21 19 16 20 26 27 19 17 14 17 19 23 27 29
31 27 27 28 30 27 25 25 25 24 25 26 29 29 25 22 21 20 19 18 17 17 18 19 21 20 17 20 24 24 21 17 14 14 16 17 25 28
29 27 27 29 27 25 24 23 21 22 25 27 29 25 22 21 19 17 17 17 16 15 15 15 16 17 15 15 18 19 18 17 16 13 13 12 16 22
27 27 28 27 25 24 24 22 22 25 27 29 27 22 20 19 16 15 16 16 16 15 12 10 11 13 13 12 13 15 18 20 20 17 18 17 19 20

GFSNE_700_spd_033.txt.gz
Wind_Speed
46 48 48 49 50 51 52 54 58 66 66 59 61 59 61 60 57 53 52 49 48 47 47 46 47 48 46 45 43 44 47 46 47 50 52 52 61 76
48 49 49 50 51 52 52 52 53 58 67 61 62 62 62 59 55 53 51 48 48 46 45 45 43 40 41 40 45 46 47 47 47 48 49 48 49 60
49 50 50 51 52 51 51 53 55 56 61 64 62 61 60 59 56 53 52 50 47 44 42 37 41 44 45 48 48 46 45 42 43 46 49 46 42 46
49 51 51 50 50 50 52 54 56 56 56 61 63 62 59 57 55 55 55 52 48 49 52 49 45 46 44 42 43 44 46 45 47 49 45 45 42 45
50 50 50 51 52 53 55 56 57 56 56 56 59 57 58 57 57 56 55 55 56 49 45 42 41 39 39 40 42 43 43 42 37 37 38 39 40 43
48 49 51 52 54 56 56 55 54 54 52 49 50 56 56 56 56 60 55 49 46 42 40 39 40 39 37 37 38 39 40 40 39 38 41 43 44 43
49 50 52 54 54 52 52 52 51 49 47 46 50 52 57 59 55 49 48 47 45 43 43 41 41 38 35 34 35 36 37 37 37 37 38 35 37 37
53 54 55 54 53 51 49 49 44 40 43 45 50 55 54 50 45 46 48 51 56 48 50 48 45 42 41 40 39 37 37 38 39 40 38 40 35 36
56 57 57 54 52 51 50 48 43 38 42 44 54 48 46 42 45 49 51 51 52 47 45 47 41 42 40 41 36 36 37 41 42 43 44 41 40 41
56 56 54 52 50 50 47 43 43 44 45 41 42 40 41 44 45 45 46 46 45 41 39 45 38 37 33 32 28 28 31 34 38 42 44 45 44 43
54 51 49 49 47 43 39 43 46 40 37 35 35 37 39 37 36 38 38 40 42 39 35 41 38 38 34 27 22 22 23 26 27 28 33 40 41 44
50 48 46 44 41 38 41 42 41 37 36 37 38 34 32 30 30 31 35 39 41 42 35 41 39 38 38 23 18 15 18 22 29 29 31 35 35 34
47 46 44 40 38 40 37 35 34 35 38 39 34 31 31 31 31 30 30 32 35 36 31 34 37 35 32 30 16 13 18 19 26 26 25 26 26 27
45 44 41 40 39 36 33 31 32 36 35 31 31 32 32 29 27 27 26 26 26 29 30 31 34 31 27 20 16 9 12 13 15 16 17 18 20 23
42 41 39 38 35 31 28 30 32 28 28 29 32 30 30 28 26 25 24 25 24 25 28 29 28 23 16 15 11 9 9 11 12 11 8 11 14 20
41 40 37 34 30 28 27 28 25 25 28 30 29 28 28 28 27 27 27 26 26 26 25 27 22 15 11 10 13 12 10 11 15 4 10 7 19 23
40 37 34 30 27 26 27 24 23 25 27 26 27 27 28 28 26 24 28 29 29 29 27 24 20 15 13 12 15 16 15 17 21 12 16 12 19 27
37 35 31 28 28 30 26 23 24 25 25 26 26 30 31 28 25 23 24 26 28 28 28 25 19 16 17 21 23 22 21 22 21 14 8 14 20 23
34 31 28 27 29 26 24 25 25 24 24 25 30 32 29 25 22 21 23 22 22 26 27 24 19 18 18 23 26 27 23 21 18 15 11 10 13 20
30 28 27 27 26 24 24 25 24 24 24 28 31 28 26 24 20 21 21 21 20 21 22 20 17 19 20 23 26 26 19 19 23 25 22 21 24 18
28 25 26 26 24 23 24 23 24 25 27 28 28 24 23 22 20 19 20 21 19 16 18 16 18 20 20 21 23 22 23 20 19 22 26 29 32 33
26 26 24 22 22 24 23 23 23 25 26 28 27 23 21 19 18 19 19 19 18 16 14 14 16 16 14 15 19 21 20 19 18 19 19 19 24 28
25 25 23 22 24 24 24 24 25 26 27 26 24 22 20 18 18 17 17 17 15 13 10 10 13 13 11 13 15 18 19 17 15 17 23 20 22 25

GFSNE_700_spd_036.txt.gz
Wind_Speed
46 48 51 53 54 55 56 58 62 69 69 62 60 58 61 62 60 59 60 58 55 53 51 51 51 52 53 53 50 44 48 45 47 50 55 57 53 54
49 51 52 54 55 55 55 56 57 61 68 61 61 63 65 63 60 59 56 54 52 49 48 47 48 47 43 41 42 45 44 46 51 49 47 47 46 50
50 51 52 54 54 54 55 56 57 58 64 65 64 64 65 64 62 57 54 54 50 46 46 44 46 49 49 49 50 52 53 51 50 48 49 49 48 46
51 52 53 54 54 54 56 58 59 59 61 65 65 65 62 60 58 56 55 55 54 51 46 41 40 40 41 44 45 46 48 48 48 49 47 46 46 48
51 52 53 55 57 58 60 60 60 59 57 57 62 59 57 54 54 53 54 56 51 45 42 41 40 41 42 42 43 43 44 45 44 43 45 47 43 42
52 52 54 56 60 61 61 59 57 56 54 52 54 54 52 51 53 59 55 49 46 43 42 40 40 41 40 41 42 43 44 45 45 45 45 44 45 46
51 54 57 60 60 59 56 56 53 51 48 47 47 48 53 58 54 49 49 49 47 45 46 40 41 39 37 38 39 41 44 46 46 45 43 42 40 40
56 59 60 60 59 56 52 50 45 41 43 41 48 54 52 46 44 46 49 50 50 40 45 40 38 38 35 36 36 38 40 42 45 47 45 44 40 39
59 60 59 55 51 51 49 46 41 40 45 48 48 43 43 42 45 45 44 45 45 41 44 41 34 36 34 34 33 33 33 35 39 44 49 49 49 47
58 56 52 48 48 47 46 44 44 44 38 38 38 39 40 39 38 41 43 44 42 37 37 43 36 35 33 30 28 29 30 31 33 35 41 47 52 52
55 49 47 47 44 42 42 45 43 37 33 33 34 33 31 33 34 38 39 42 41 35 30 40 38 41 39 32 24 20 24 28 30 31 32 32 32 40
50 46 45 42 41 40 41 41 37 35 36 37 31 28 30 30 29 31 35 39 41 39 33 42 42 43 46 32 26 19 23 26 31 33 34 33 35 35
47 46 42 40 39 38 35 33 34 37 38 32 32 30 28 28 29 29 30 33 37 39 35 38 41 41 38 34 20 18 21 20 22 24 27 26 27 30
46 43 40 39 38 34 31 32 34 34 31 30 30 27 27 28 29 29 27 29 30 33 34 33 38 35 31 23 18 14 17 18 21 18 15 16 18 22
43 38 38 37 34 30 29 32 30 28 28 28 28 28 30 33 31 28 26 29 28 28 30 29 28 24 21 19 22 21 22 15 17 15 10 8 10 17
40 36 36 33 29 29 29 25 24 26 28 28 29 31 34 33 28 28 28 26 28 29 24 25 21 19 17 20 22 20 21 28 26 21 6 0 11 14
37 35 33 29 27 26 22 22 23 24 25 27 30 33 31 30 28 26 25 24 26 31 25 19 17 16 18 20 20 26 29 26 24 19 16 10 12 15
34 34 30 28 28 26 23 22 22 23 26 29 31 33 30 29 27 24 23 22 23 25 24 20 16 14 17 22 30 29 29 29 26 19 19 17 17 17
33 30 27 27 25 23 23 23 24 25 28 30 31 31 28 26 24 22 22 23 19 21 21 18 15 16 20 26 27 27 26 23 19 14 18 14 23 22
29 26 26 25 23 23 23 24 25 26 27 28 28 27 25 25 23 21 22 23 20 18 15 14 15 18 22 23 26 26 23 27 25 20 19 17 22 24
25 24 25 23 22 22 23 24 25 26 26 26 25 26 26 24 22 21 20 21 18 14 12 11 14 17 16 15 20 22 23 20 21 28 25 22 24 30
24 24 22 21 21 22 23 24 25 25 25 24 22 25 25 23 22 20 19 19 15 13 10 10 12 12 10 11 17 19 20 22 21 22 26 29 29 30
24 22 20 21 22 23 24 25 26 26 25 22 23 24 23 21 20 18 17 16 13 11 8 8 9 10 10 9 11 14 15 18 23 29 34 33 33 33

GFSNE_700_spd_039.txt.gz
Wind_Speed
45 47 50 52 53 55 56 59 63 73 76 71 69 67 68 68 66 65 64 62 61 61 59 59 59 59 60 60 60 61 59 54 56 46 47 47 44 44
48 50 51 53 55 56 57 59 60 64 72 68 69 71 71 69 65 63 59 58 55 51 49 48 48 51 53 52 56 57 51 51 44 44 47 50 49 53
49 52 53 55 57 58 59 61 63 65 70 73 70 69 68 67 62 55 53 52 49 45 46 46 45 46 45 44 46 50 53 50 54 49 50 54 53 56
52 54 55 56 58 59 62 64 65 66 66 68 67 61 58 55 54 52 52 50 53 50 44 42 42 42 42 42 43 43 44 46 49 51 59 63 58 52
54 55 56 58 59 62 64 66 67 64 60 59 60 56 54 51 52 52 54 54 49 45 46 46 43 44 44 45 45 46 46 46 46 45 45 44 41 44
54 55 56 59 62 65 66 63 59 57 56 54 54 53 53 54 55 53 50 46 48 44 40 38 37 36 37 37 39 41 42 47 50 51 51 50 48 46
55 56 58 62 63 61 58 55 54 53 50 50 51 54 54 50 45 46 49 46 39 41 42 33 36 34 32 34 36 36 39 41 44 47 50 52 51 50
56 59 62 61 58 54 51 50 47 46 45 46 50 50 45 43 45 41 43 46 45 41 42 38 36 36 33 33 31 33 36 38 39 43 46 49 51 51
58 61 61 56 51 51 49 46 45 44 42 42 44 39 43 40 40 42 42 44 43 40 43 43 37 37 36 35 35 36 36 36 36 38 42 46 48 51
60 59 55 50 48 47 46 46 43 38 35 35 36 38 35 36 38 41 44 46 44 40 41 45 41 41 39 37 34 32 31 32 35 36 37 39 42 45
59 54 50 48 46 44 44 45 39 33 32 32 28 28 32 34 35 38 39 42 42 37 35 45 43 47 45 35 25 21 25 28 32 35 34 32 34 38
55 49 46 44 41 41 41 38 36 35 34 29 27 27 30 30 30 34 38 41 42 42 38 46 46 46 45 32 22 20 20 21 25 27 28 28 29 32
50 47 44 41 39 38 35 34 35 36 31 32 31 30 28 30 34 35 34 35 38 40 40 42 43 39 36 32 20 21 24 23 26 27 27 26 25 28
47 44 42 40 38 34 31 33 34 31 31 31 29 29 33 34 33 31 28 28 30 34 38 36 36 32 32 30 29 25 24 24 22 21 23 25 24 23
44 41 38 38 34 31 30 32 30 30 30 29 30 33 34 35 32 29 24 26 24 26 30 29 27 26 28 32 34 31 31 21 22 21 16 16 18 19
43 38 37 35 31 30 29 26 27 29 29 30 33 34 35 31 28 27 26 27 24 20 22 23 23 26 28 31 30 32 36 34 28 24 12 11 3 8
40 36 34 31 29 26 22 23 24 25 27 29 32 34 32 28 25 25 24 26 26 26 22 16 18 23 26 28 31 34 36 36 28 17 27 9 4 7
36 35 32 30 28 25 24 23 23 25 27 30 30 31 30 28 26 23 24 24 25 22 20 20 17 16 21 26 32 34 32 33 25 18 21 19 20 19
35 32 29 28 24 24 24 24 25 26 28 28 28 27 30 29 27 24 23 23 20 18 18 18 18 19 23 30 30 28 31 31 24 18 18 19 21 20
31 28 27 25 24 24 24 25 25 26 26 26 24 26 29 30 27 25 22 21 18 16 14 14 15 18 26 30 32 31 29 29 28 17 14 14 21 19
27 25 25 24 24 25 25 25 27 27 26 25 23 26 27 27 24 23 21 20 17 13 12 12 15 19 19 19 24 27 27 27 27 24 18 15 16 14
25 24 23 24 24 25 25 26 25 22 23 24 24 24 24 23 23 22 20 17 14 12 10 11 12 15 14 16 20 20 24 28 30 30 29 22 19 19
24 23 22 23 25 25 25 25 23 24 24 25 25 23 22 20 19 19 19 16 12 10 7 8 9 13 15 16 16 15 17 23 28 31 35 33 27 25

GFSNE_700_spd_042.txt.gz
Wind_Speed
42 44 47 49 51 54 56 58 62 72 76 75 74 71 73 71 68 64 61 58 57 55 51 51 53 53 54 56 57 58 61 64 66 56 57 46 43 51
45 47 49 51 53 55 57 58 60 64 74 72 71 70 68 63 60 57 54 51 48 47 47 46 45 46 48 50 52 53 53 52 54 52 52 52 46 46
47 49 51 53 55 56 58 61 63 66 71 71 67 62 59 59 57 54 51 48 47 44 42 41 40 40 40 41 41 43 44 44 41 41 42 43 47 48
49 51 53 55 56 58 61 64 66 65 64 65 60 56 54 52 51 48 46 45 42 42 42 40 40 40 40 41 43 45 46 46 45 44 43 42 42 46
51 53 55 57 60 62 64 65 62 60 57 57 56 53 52 49 46 45 44 44 44 40 36 35 35 36 36 37 38 41 44 46 47 48 48 46 43 43
51 54 56 58 61 63 63 60 57 55 52 51 53 53 50 45 42 45 45 37 39 35 32 36 32 32 33 34 36 38 41 43 43 45 47 48 50 48
53 55 57 60 61 59 57 55 52 49 48 49 50 48 42 41 42 41 40 39 38 38 39 37 34 35 33 32 34 35 37 38 40 42 43 44 46 49
55 57 59 59 57 54 50 49 44 42 44 44 44 42 42 41 37 39 41 41 39 36 40 40 39 37 38 37 36 37 38 39 40 41 40 42 44 45
56 58 59 56 52 50 47 46 41 39 36 39 41 39 38 35 38 38 39 42 43 41 42 44 39 40 39 35 31 32 34 36 38 39 39 40 42 43
56 57 55 52 49 47 46 44 40 35 34 35 33 32 34 35 37 39 41 46 46 41 40 46 41 42 37 29 24 26 31 31 30 30 31 32 33 35
57 54 50 49 46 43 43 43 37 32 32 30 26 28 30 32 35 39 42 44 44 38 33 44 43 43 34 24 22 24 26 26 27 27 27 28 29 31
54 49 46 45 42 40 40 39 35 34 28 26 27 27 28 30 32 36 38 40 41 40 35 42 43 43 35 30 29 27 26 25 28 30 31 30 29 31
49 47 44 42 38 37 35 34 34 31 29 30 29 29 31 32 33 32 33 34 34 38 36 40 41 36 35 41 33 31 30 27 25 25 26 30 31 30
48 44 41 39 37 35 32 32 31 30 30 30 29 30 33 32 30 28 27 28 27 34 33 33 35 34 35 37 40 37 31 30 25 20 20 24 27 29
45 40 38 37 35 31 31 30 30 31 30 30 31 32 31 30 28 27 25 26 24 24 27 27 28 28 32 34 39 39 35 31 32 28 26 25 22 22
43 38 37 35 31 30 27 25 27 28 30 31 32 31 30 29 28 28 26 26 26 20 20 21 22 25 29 31 35 36 36 35 29 23 32 19 14 8
41 37 35 31 29 26 24 24 25 27 28 30 30 30 29 30 27 26 26 26 28 28 19 15 18 22 27 32 34 35 36 28 30 27 30 19 10 3
37 35 33 30 28 26 25 25 27 28 29 29 29 28 29 30 30 26 26 26 26 23 21 19 22 19 21 31 37 36 33 28 30 24 27 26 16 14
34 33 30 29 26 26 27 28 28 28 28 26 26 27 30 30 30 27 25 25 22 20 19 20 22 23 26 33 34 35 35 29 25 22 24 26 21 21
29 29 28 26 26 26 27 27 26 25 23 25 27 29 30 31 29 26 25 24 22 19 17 17 19 20 26 30 32 35 36 31 28 22 23 24 23 21
26 25 25 25 26 27 27 26 25 23 26 28 28 29 28 28 26 26 24 22 20 18 14 15 17 17 18 18 22 29 33 34 28 22 16 20 17 16
24 23 23 25 26 26 25 24 23 25 26 27 26 26 25 24 25 25 24 22 18 16 14 13 13 12 13 17 21 24 28 30 32 29 23 23 22 26
22 22 23 24 25 25 24 23 24 26 26 26 24 23 22 22 24 23 23 21 18 15 12 9 10 13 12 14 18 20 23 26 27 30 31 29 27 25

GFSNE_700_spd_045.txt.gz
Wind_Speed
38 39 41 44 46 49 52 55 60 67 71 70 70 68 67 66 63 61 58 54 52 50 50 50 48 46 45 46 48 51 50 47 50 50 48 49 58 66
40 42 44 46 48 51 54 55 57 61 72 68 67 65 65 61 58 55 53 49 46 45 42 39 39 39 40 41 42 44 46 48 49 49 48 45 45 47
42 44 46 49 50 52 54 55 58 61 67 67 64 60 58 55 52 49 47 43 38 35 34 33 34 33 35 36 37 39 40 42 45 44 42 42 43 42
44 45 47 50 51 53 56 59 61 61 62 64 58 55 52 48 44 42 38 38 37 32 32 35 33 35 37 38 38 38 38 40 41 43 45 45 42 43
46 48 50 52 54 57 59 61 61 59 56 55 54 51 47 40 41 41 38 35 30 30 32 31 30 32 33 35 36 37 39 39 40 40 40 43 46 46
47 49 51 54 56 58 61 61 58 54 51 49 50 49 42 39 41 43 32 33 33 27 32 33 30 31 31 31 34 36 38 40 41 42 41 41 41 42
48 50 52 54 57 58 57 54 52 49 45 45 47 42 38 39 38 36 38 35 33 32 37 37 34 35 32 34 37 39 40 41 43 43 43 42 41 39
51 53 54 56 56 54 50 48 46 40 40 42 42 39 38 37 35 39 38 39 39 38 41 39 38 34 34 34 32 33 35 36 36 35 38 40 42 42
52 54 56 55 52 49 46 44 40 37 35 38 39 35 34 34 36 35 37 43 44 43 41 39 33 33 33 26 24 28 32 34 33 32 30 30 31 36
52 54 54 51 48 47 44 42 37 33 33 33 31 29 32 32 34 38 42 44 43 39 37 38 33 32 25 20 22 26 29 29 31 32 32 31 29 29
52 51 50 48 45 41 40 40 35 31 30 29 26 27 27 30 35 40 39 43 38 34 29 39 33 36 25 18 21 27 28 29 31 32 33 34 33 30
50 48 45 43 40 37 37 37 35 32 27 24 26 26 28 30 33 35 36 36 36 35 34 40 36 38 32 26 28 29 31 29 28 29 29 30 31 34
49 45 42 39 36 35 34 33 33 30 27 27 26 27 29 30 30 30 32 34 33 33 34 37 36 33 33 40 32 32 34 30 26 24 23 23 26 30
46 42 39 36 35 33 31 30 29 30 30 30 30 30 30 28 27 29 29 30 29 31 32 30 33 32 33 35 40 36 31 28 28 26 26 27 27 27
42 38 36 34 33 29 29 28 29 30 30 31 31 31 30 29 28 31 29 29 25 25 27 26 26 27 29 34 39 38 38 24 24 22 27 29 28 21
41 38 35 33 31 29 26 25 26 28 30 31 31 30 29 27 28 31 30 28 26 19 19 22 21 24 26 28 35 37 35 31 25 25 27 28 26 19
42 37 32 30 27 25 24 24 26 28 29 29 28 28 29 30 28 29 29 27 27 27 18 15 18 19 21 27 32 38 40 30 23 27 25 28 21 12
38 32 29 28 27 25 25 25 26 26 27 25 27 30 31 31 30 27 27 28 27 22 21 18 18 15 14 22 33 38 38 33 23 23 25 28 21 15
31 27 27 26 25 25 26 25 24 23 23 26 28 30 30 29 28 27 26 27 24 19 18 19 19 19 20 24 28 34 37 35 24 25 21 26 26 20
25 25 24 24 25 25 24 24 22 22 24 25 26 28 27 27 26 26 27 27 25 18 15 15 16 16 20 26 29 30 33 33 27 20 21 24 24 25
23 22 23 24 24 24 23 22 23 24 26 27 26 26 24 25 26 27 27 26 24 19 13 12 14 16 16 17 20 25 28 29 29 24 20 20 22 23
21 21 23 24 23 23 23 22 22 24 25 25 25 24 23 25 26 26 25 24 22 18 15 12 12 15 15 16 19 22 25 26 25 25 21 19 20 24
20 21 22 22 22 22 21 21 23 25 26 25 24 23 24 24 25 23 22 22 21 19 15 10 11 14 16 16 17 20 23 24 22 21 21 20 17 16

GFSNE_700_spd_048.txt.gz
Wind_Speed
39 40 40 41 43 45 47 50 55 62 63 64 64 65 65 64 63 61 60 55 51 48 45 44 43 41 40 40 41 42 44 46 48 49 51 52 46 47
40 40 42 43 45 48 50 53 55 59 67 63 64 63 61 60 59 56 52 49 44 39 37 39 39 38 37 36 37 37 38 39 41 43 46 45 44 45
41 42 44 46 47 50 52 55 57 58 64 66 62 59 58 58 54 50 48 41 38 36 32 30 34 34 35 36 37 37 37 37 37 38 40 42 42 44
42 44 46 47 49 52 55 56 57 58 60 64 60 57 55 52 48 46 42 39 38 31 31 32 32 32 37 37 37 36 37 38 39 42 43 43 42 42
44 45 46 49 52 54 55 57 57 57 57 59 58 53 51 46 43 42 41 37 31 32 30 35 33 34 38 38 37 37 37 39 42 44 45 46 45 44
44 46 48 51 53 54 56 56 57 56 54 52 52 51 47 41 41 43 39 32 34 32 31 40 38 36 35 32 32 33 38 42 43 42 40 41 42 44
45 48 51 52 52 53 54 54 53 52 48 47 48 47 40 39 38 36 39 35 33 39 38 36 41 32 28 27 29 33 38 36 35 35 35 34 35 36
48 50 52 52 52 52 52 50 48 46 43 44 45 41 38 37 34 37 39 38 41 37 43 30 34 25 28 26 26 31 31 33 36 37 37 36 35 33
48 50 51 52 52 52 50 48 44 38 38 40 40 37 36 32 36 34 35 40 43 41 43 34 30 28 28 23 20 25 29 33 35 36 37 37 35 35
49 50 50 51 49 48 47 43 40 36 34 34 34 31 32 33 33 35 37 38 38 38 38 39 32 28 26 17 16 21 27 32 34 35 37 37 36 36
49 49 50 49 46 43 41 40 38 32 30 29 28 28 28 30 34 39 38 40 39 36 30 39 33 32 27 13 14 21 28 33 34 35 34 34 36 37
49 48 45 44 41 38 38 38 35 31 27 24 26 28 30 31 33 35 37 38 40 38 31 39 33 37 32 20 21 27 31 31 33 34 30 31 31 32
49 46 43 41 38 35 34 33 33 30 27 28 27 29 31 32 32 32 33 36 38 38 32 37 34 32 33 35 26 28 32 34 33 28 29 31 29 31
46 43 41 39 35 32 31 30 28 29 30 30 31 30 31 30 29 29 31 33 33 35 33 33 35 32 32 33 33 31 30 30 31 28 30 31 32 31
43 40 38 35 30 29 28 27 28 29 31 32 32 31 30 31 31 32 30 32 28 27 28 30 30 28 29 31 34 33 39 32 26 25 26 29 30 31
42 39 36 30 27 26 25 26 28 30 31 31 30 29 30 31 32 33 31 29 27 20 20 24 25 25 27 24 30 32 33 35 31 28 25 28 33 30
40 37 31 26 24 24 25 26 27 28 28 28 29 31 31 31 28 28 27 27 28 28 21 16 18 21 21 23 23 29 31 31 30 30 25 26 32 26
37 32 27 26 25 25 25 24 26 26 26 27 29 31 31 29 27 25 28 28 29 26 22 20 18 16 15 14 24 29 30 30 27 26 25 25 28 24
32 26 25 25 25 25 25 24 24 23 26 28 29 29 30 28 27 27 28 27 25 24 21 20 19 21 22 20 18 27 32 28 26 22 21 21 25 28
25 24 24 24 24 24 23 24 22 24 25 27 28 29 29 28 27 28 28 27 24 21 19 17 17 19 22 24 26 25 29 30 27 24 20 18 20 17
21 22 23 24 24 24 24 24 25 26 27 28 27 27 27 28 27 28 28 25 23 22 19 16 14 17 21 21 23 24 26 27 26 25 21 17 13 14
19 20 22 23 24 24 24 23 23 25 26 26 25 26 27 27 28 27 26 24 20 21 18 17 14 15 19 20 21 25 26 25 23 22 22 20 16 16
18 19 20 22 23 23 24 24 26 26 26 27 27 27 28 28 26 25 24 20 20 19 19 16 15 15 19 20 22 24 26 26 23 18 18 17 15 15

GFSNE_700_spd_051.txt.gz
Wind_Speed
41 41 40 41 41 42 44 46 51 56 57 57 59 60 60 61 61 62 61 59 54 51 47 44 43 44 42 41 40 37 38 37 38 39 39 40 42 44
42 41 41 41 42 44 46 48 51 56 62 59 60 60 59 60 59 58 55 52 46 44 41 40 40 38 35 35 35 34 34 35 36 36 38 38 39 39
41 41 41 42 43 46 48 51 54 56 61 61 60 59 57 57 54 51 48 46 41 36 36 34 33 34 35 35 36 35 36 35 35 37 38 38 40 41
40 41 42 44 46 48 51 53 55 56 59 63 61 58 55 52 50 47 45 41 38 35 31 31 31 33 36 38 39 40 40 39 37 38 40 40 38 40
41 42 44 45 47 50 53 54 55 56 57 60 60 55 51 47 45 43 42 38 33 31 31 30 33 37 39 39 40 40 40 38 37 38 38 39 38 37
41 43 45 47 49 51 53 54 55 56 55 54 52 50 48 44 42 41 42 33 32 31 32 34 37 36 36 31 33 31 33 34 37 37 33 31 32 33
42 44 46 49 51 52 53 54 53 52 50 47 47 47 44 40 40 38 38 38 30 35 40 31 37 31 27 26 29 28 30 34 35 32 30 30 33 34
42 45 48 50 51 53 53 52 49 47 44 43 44 43 40 37 37 35 39 39 39 30 43 33 33 28 24 27 26 27 30 31 31 31 32 35 37 36
44 47 49 50 51 52 51 48 45 41 39 40 41 38 38 33 37 37 33 36 39 38 41 37 33 27 26 25 23 21 24 28 30 33 37 40 41 41
46 47 49 50 50 49 48 46 44 39 36 36 36 34 33 35 36 37 39 40 35 35 37 44 35 30 26 22 19 17 21 26 30 33 36 38 39 40
47 48 49 51 50 47 46 44 40 35 32 30 30 32 32 31 33 39 37 39 38 34 32 41 37 33 27 20 14 14 19 23 29 33 36 38 37 37
48 48 47 46 45 44 43 40 37 33 31 27 27 29 32 33 33 34 36 38 40 40 31 39 37 36 33 18 13 16 20 24 29 32 35 34 32 34
48 47 45 44 42 40 37 33 33 33 30 30 30 30 30 30 30 30 32 36 39 39 33 38 38 34 36 34 20 16 23 27 31 31 30 26 26 28
48 45 42 41 39 34 30 30 30 31 32 32 31 30 30 29 30 32 32 33 33 34 34 33 37 35 35 32 29 21 24 28 32 32 29 26 27 30
45 42 40 38 33 28 28 29 29 30 31 30 30 29 30 32 32 34 30 30 27 26 29 32 34 32 31 30 34 29 34 31 29 32 28 28 28 32
43 40 38 32 27 27 26 27 28 29 30 31 31 31 33 33 33 34 32 29 29 23 23 29 29 29 28 28 31 31 31 36 32 31 31 27 25 30
42 38 34 27 24 24 26 27 28 29 30 29 31 34 34 34 32 31 30 30 32 32 26 22 22 24 24 27 27 27 29 31 33 32 31 28 23 28
38 35 29 26 25 26 26 25 26 28 28 30 31 33 34 33 31 28 29 31 32 31 29 28 27 21 18 16 22 26 28 32 33 30 28 29 23 25
34 29 25 25 25 26 26 26 26 26 28 30 33 33 33 31 31 30 30 31 30 29 28 27 27 25 25 23 13 20 31 33 34 30 29 25 24 23
28 24 23 23 24 25 25 26 25 26 28 30 31 31 31 31 31 30 29 30 30 26 25 24 24 23 24 27 27 22 26 33 35 33 28 24 19 17
21 20 21 22 23 24 26 25 27 28 29 29 28 29 29 31 31 29 27 26 27 25 25 23 22 21 23 25 27 25 24 29 32 32 29 27 17 12
17 18 19 21 23 25 25 26 26 26 26 27 29 30 29 30 29 27 26 24 20 22 24 22 20 21 21 24 26 27 29 29 28 26 25 25 24 19
15 16 18 20 22 23 24 25 25 25 27 28 30 31 30 29 26 23 21 20 21 21 23 21 19 19 21 23 23 27 30 30 28 24 20 21 20 18

GFSNE_700_spd_054.txt.gz
Wind_Speed
35 38 40 42 41 42 42 44 48 52 51 48 52 53 55 56 58 59 59 57 54 51 50 48 45 43 42 41 38 37 36 35 35 35 34 34 33 34
38 40 42 42 42 42 43 44 46 50 57 54 56 58 59 59 57 56 53 51 47 43 41 39 37 37 36 33 32 33 32 33 35 34 35 35 36 36
40 41 42 42 42 43 44 45 47 50 56 57 58 59 60 58 55 52 48 45 41 35 34 34 32 33 31 32 33 33 34 36 36 36 38 38 39 38
41 42 41 42 42 44 46 48 50 52 56 60 59 59 57 53 51 48 44 38 34 32 31 28 31 30 32 36 39 38 38 39 40 40 40 39 38 37
41 41 41 42 43 45 47 50 52 53 54 56 58 54 51 47 45 41 38 36 30 28 30 28 33 32 34 37 39 36 35 36 35 35 36 35 35 34
40 41 42 43 45 48 50 52 53 54 54 53 52 50 48 43 40 39 37 32 27 30 31 29 35 33 32 33 33 34 32 33 33 31 31 31 32 31
39 41 42 44 47 50 52 54 55 54 52 51 49 46 43 39 38 36 35 36 29 31 38 29 36 31 30 29 30 29 31 32 32 33 33 29 29 29
39 40 43 45 47 50 52 52 50 48 48 46 45 43 40 38 37 37 37 38 40 29 39 32 33 30 29 27 27 27 30 30 29 32 30 29 30 31
40 42 44 46 48 51 52 50 46 43 41 41 40 39 39 35 39 40 37 37 35 34 39 39 31 31 28 24 24 25 26 26 28 31 30 32 34 36
41 43 46 49 50 51 51 48 45 41 36 34 35 35 35 35 37 41 41 41 34 31 35 43 35 32 28 21 19 20 21 24 28 31 33 34 36 39
42 44 47 49 49 49 48 46 43 36 30 28 29 31 33 33 35 39 37 39 38 34 33 41 37 35 29 19 15 16 18 22 25 27 30 34 36 38
43 45 45 46 46 44 44 43 38 31 29 26 25 27 30 30 31 33 35 39 40 40 30 39 38 37 32 18 14 14 16 19 22 25 29 32 34 36
46 47 45 44 43 41 39 34 32 31 31 30 29 28 27 27 28 29 31 35 37 36 30 37 39 37 38 37 19 16 16 18 21 23 28 29 31 30
48 46 44 43 41 37 32 30 30 30 31 30 30 29 29 28 28 30 30 32 31 33 32 34 40 40 40 37 30 20 19 19 23 26 29 28 27 26
46 44 42 40 37 31 27 28 29 30 31 31 30 30 31 33 32 33 30 30 27 26 30 33 36 37 36 36 35 27 29 20 22 28 29 27 27 27
43 40 39 37 31 27 26 26 28 30 31 32 32 32 32 34 33 32 33 31 30 24 24 30 32 35 35 33 32 30 30 32 28 29 31 28 26 27
44 41 38 32 25 23 23 25 27 29 29 30 31 33 33 33 32 31 32 33 33 32 29 24 26 31 31 31 29 27 30 28 28 31 33 32 24 26
41 39 33 27 24 24 24 23 25 28 29 30 31 32 33 33 33 31 32 33 34 31 32 29 30 30 25 20 24 26 27 29 29 31 33 35 26 23
39 34 27 23 23 23 24 26 27 27 29 29 30 30 32 33 33 33 33 32 30 30 29 27 30 32 32 26 15 23 32 31 33 31 33 33 31 25
32 26 21 21 22 22 24 25 25 26 27 27 29 31 33 35 35 35 33 32 30 28 26 26 28 29 30 32 29 23 24 32 35 34 33 31 29 26
24 19 20 20 21 22 23 24 26 28 29 30 30 32 34 35 35 32 29 26 27 27 27 26 24 24 27 29 30 26 22 26 31 33 34 33 30 26
17 17 18 19 20 22 22 24 25 28 28 29 32 33 34 32 29 27 26 27 26 25 25 24 24 24 25 28 28 28 28 26 24 25 28 31 31 29
14 15 16 17 19 21 22 25 27 28 29 31 33 34 32 28 26 25 26 25 25 24 25 24 22 22 23 24 25 26 26 29 29 25 23 24 22 21

GFSNE_700_spd_057.txt.gz
Wind_Speed
29 32 35 38 41 42 43 44 47 49 47 43 46 46 49 51 54 58 60 59 58 55 54 53 51 49 45 43 41 38 35 35 35 33 33 32 32 32
32 35 37 40 42 43 43 44 45 48 53 50 50 51 53 56 58 59 56 54 51 47 46 43 41 39 40 37 35 34 32 32 33 34 34 35 34 35
34 37 40 41 42 43 43 43 44 47 52 52 54 56 58 59 58 55 51 49 44 38 36 35 35 35 33 34 33 32 33 35 36 37 37 38 39 39
37 40 41 42 42 43 43 44 46 48 52 55 57 58 58 55 53 51 47 42 37 33 32 30 31 33 33 35 35 35 37 37 38 37 37 38 41 42
39 42 41 41 42 42 43 45 47 49 51 56 59 56 54 48 47 43 41 37 31 28 29 28 33 33 35 36 38 39 38 39 37 34 33 33 33 35
42 41 40 41 42 43 46 48 50 52 55 56 56 53 49 43 42 41 38 33 27 29 31 29 33 34 35 35 36 37 39 39 35 34 31 31 32 33
39 39 39 40 42 45 48 50 53 54 53 53 52 49 44 40 38 37 36 35 28 29 34 29 32 31 29 32 33 34 37 37 36 33 33 32 32 32
37 38 39 41 44 46 48 52 53 51 50 48 48 45 41 37 37 38 38 38 37 25 31 30 32 33 31 32 32 33 34 34 33 33 31 31 31 30
37 38 40 43 45 48 51 52 50 45 43 45 43 38 37 34 36 38 38 38 35 29 35 39 33 34 32 30 29 29 30 32 32 32 31 32 31 29
37 40 42 45 48 51 52 51 49 44 42 38 34 34 34 34 36 39 38 40 38 32 33 42 35 34 32 26 23 24 27 29 31 31 31 31 30 31
38 41 44 47 48 49 49 48 46 41 37 30 29 30 32 32 33 37 36 39 38 36 28 40 35 35 31 24 18 20 23 26 29 29 32 32 31 32
38 41 44 47 48 46 47 46 44 39 32 27 24 25 28 28 29 32 36 39 39 41 30 38 36 36 37 27 22 19 21 23 26 27 28 29 30 32
41 45 46 47 45 44 43 41 38 33 31 30 27 26 25 26 26 28 31 35 37 37 32 36 39 38 40 41 28 22 21 20 24 25 27 28 28 32
46 47 46 45 44 42 39 35 31 31 31 30 29 27 29 27 27 29 31 32 33 33 34 34 39 40 42 41 37 24 21 20 23 23 25 25 26 29
45 44 43 42 40 36 31 28 29 30 30 30 29 29 30 31 31 32 31 32 31 28 30 33 36 38 40 39 39 31 29 20 19 21 23 25 27 30
41 39 40 39 36 30 26 26 28 29 30 31 32 32 32 31 30 31 32 33 34 31 26 29 32 36 37 35 36 34 29 29 25 24 26 27 29 30
42 41 39 35 27 22 22 24 25 27 27 29 30 31 30 31 32 32 32 33 34 34 31 26 29 30 32 35 35 30 29 27 27 29 30 31 30 30
41 41 37 29 22 21 21 20 24 25 27 29 29 30 33 35 36 35 35 35 34 32 31 29 28 28 27 25 28 25 21 26 26 28 30 35 32 26
40 37 30 21 20 21 22 22 23 25 27 28 30 32 35 36 38 37 34 32 30 30 27 27 28 32 34 31 22 25 33 26 28 29 31 34 36 28
35 29 20 19 18 20 21 22 23 25 26 28 30 33 34 36 35 34 31 31 30 29 27 25 27 29 30 33 30 24 23 28 30 33 33 33 32 31
27 20 17 16 17 18 20 21 24 26 28 29 29 32 34 33 31 30 29 28 28 28 26 23 24 25 27 30 30 26 21 21 29 35 36 37 34 32
19 14 14 14 16 18 19 22 23 24 25 27 30 32 32 31 31 30 29 29 27 26 25 24 24 25 25 28 30 28 25 24 24 26 28 33 35 34
12 11 11 13 15 17 20 22 24 25 26 28 30 30 31 31 30 29 29 28 27 27 27 26 24 23 26 27 27 28 28 28 27 21 15 18 19 20

GFSNE_700_spd_060.txt.gz
Wind_Speed
33 27 29 35 37 40 43 47 48 51 48 41 43 43 45 48 50 54 58 61 62 63 62 61 58 57 54 51 50 46 46 43 40 40 38 37 35 34
25 24 32 37 38 41 46 47 47 49 53 48 45 47 48 50 53 58 61 63 61 58 56 53 50 47 45 44 44 43 41 39 36 36 35 35 35 36
24 30 35 38 40 44 47 47 47 48 51 51 51 50 52 54 57 59 59 58 55 49 47 43 40 41 42 42 41 40 39 38 37 37 37 38 38 39
27 33 36 40 44 47 46 46 46 47 51 53 53 55 57 59 60 58 56 51 48 42 38 34 34 36 37 39 40 41 41 41 41 40 40 39 40 40
29 33 38 45 45 44 45 45 46 48 50 53 56 58 60 58 57 55 52 45 41 35 31 33 35 36 37 40 41 43 43 43 43 42 39 40 40 40
32 36 43 42 42 43 44 45 48 49 51 55 59 60 60 56 53 52 47 38 35 30 31 34 34 35 35 37 39 39 41 43 43 40 37 37 37 36
36 38 40 41 42 43 45 47 49 52 55 57 59 59 55 52 47 44 41 38 34 29 31 33 30 31 32 35 37 38 40 42 43 41 37 36 36 36
34 37 39 40 41 43 45 48 52 55 55 56 56 55 51 47 41 39 40 39 39 24 29 32 29 32 31 33 33 37 39 41 42 40 38 36 36 35
34 37 38 39 42 44 48 52 53 53 51 51 52 49 45 39 39 40 40 38 37 30 34 40 33 33 32 31 30 31 33 37 38 37 37 36 35 32
35 37 38 40 43 47 51 53 52 49 47 47 43 38 35 35 37 38 38 40 39 35 32 43 39 37 35 31 28 26 29 34 37 38 37 36 32 31
34 38 41 43 47 49 52 52 50 46 44 38 32 31 33 35 36 39 39 41 41 40 31 40 40 39 37 33 26 22 27 28 32 36 36 35 32 32
35 38 42 46 48 49 49 49 48 44 40 32 28 27 30 31 33 36 38 42 43 44 35 39 39 40 42 37 30 24 26 25 30 33 33 33 32 34
37 40 44 46 46 45 45 45 43 39 33 31 30 29 29 29 30 32 34 38 40 40 35 38 39 40 43 42 39 30 28 24 27 29 30 31 32 34
41 44 46 45 44 44 42 40 34 30 30 29 30 29 30 29 28 30 32 34 36 37 34 35 40 41 42 43 43 34 27 26 27 25 26 29 32 34
44 45 45 44 43 41 36 30 28 28 29 29 29 29 30 32 31 32 33 34 35 32 32 33 38 38 39 40 42 35 32 26 22 24 24 27 29 31
42 41 42 42 40 34 26 25 26 27 29 29 29 30 31 32 34 36 37 37 36 33 26 28 31 34 35 35 36 35 31 33 25 22 24 26 26 27
42 42 40 36 30 22 20 22 24 25 25 27 29 30 32 34 35 36 36 33 32 30 27 24 26 29 31 34 35 32 32 28 25 27 29 29 26 26
42 41 36 31 22 18 17 18 22 23 25 26 28 31 33 34 34 34 35 34 33 31 29 28 28 29 28 26 28 27 24 26 25 25 26 30 28 26
40 36 31 23 17 17 18 19 19 22 24 25 28 30 32 32 33 33 33 33 32 31 28 27 28 32 34 32 24 25 32 26 27 26 27 30 34 30
36 31 24 16 15 16 17 19 20 22 23 25 27 29 31 32 33 33 32 33 32 31 29 27 27 28 31 34 32 24 24 29 31 33 33 34 36 35
29 24 16 13 13 14 17 19 21 22 23 25 26 28 31 32 31 31 31 31 32 31 28 26 25 25 27 30 32 28 24 27 30 33 34 35 33 27
22 14 11 10 12 14 16 19 19 22 23 24 26 29 30 30 30 30 31 32 31 30 29 27 25 26 28 30 32 32 29 25 23 22 22 25 29 31
10 7 7 9 11 14 16 17 19 22 24 25 27 29 29 29 29 30 30 31 32 31 30 30 28 28 28 30 30 29 28 26 24 17 12 20 22 22

GFSNE_700_spd_063.txt.gz
Wind_Speed
36 37 35 36 35 33 35 38 41 47 49 46 44 43 46 47 49 52 53 56 58 60 62 64 64 65 64 64 62 58 54 49 46 44 43 41 40 39
34 36 40 33 33 33 38 40 43 48 54 51 45 46 47 48 50 53 56 60 62 64 64 64 64 62 60 58 53 48 45 43 43 42 39 38 38 38
34 33 36 37 32 35 38 44 46 49 50 51 50 48 50 50 51 54 58 62 62 60 60 60 58 56 53 47 45 44 42 43 42 42 41 40 39 39
38 32 34 34 35 37 40 47 46 45 49 52 52 52 53 53 56 60 61 60 59 55 53 51 49 46 43 43 44 44 44 44 44 44 43 41 41 42
30 27 32 33 36 40 44 44 44 45 47 52 54 55 57 58 61 62 61 59 55 49 43 42 40 40 41 41 42 42 43 44 44 43 42 39 38 38
27 27 30 33 39 42 41 42 43 46 48 51 55 58 61 61 60 61 61 55 49 40 35 38 38 38 37 38 40 41 41 44 45 45 44 41 37 36
25 28 34 36 38 39 41 42 45 48 50 54 58 60 60 59 58 57 54 50 43 37 34 35 36 35 33 34 37 39 42 44 45 46 46 43 39 36
27 32 32 35 38 39 41 44 46 49 53 57 59 59 57 57 54 51 47 45 43 39 33 34 33 33 32 34 34 36 38 40 42 43 43 41 39 38
28 31 33 35 38 40 42 44 48 51 54 55 56 54 54 49 46 43 43 43 43 40 39 40 37 36 34 34 33 34 35 34 37 41 42 40 40 38
29 31 33 36 38 40 44 47 51 50 51 51 48 46 42 38 39 42 43 44 44 43 41 44 42 41 39 36 32 31 29 29 35 40 43 43 41 38
30 33 36 37 38 42 47 50 50 49 49 45 40 35 34 35 37 40 41 44 45 44 42 44 42 42 40 38 35 26 25 28 34 37 40 41 41 38
31 34 37 40 43 46 49 50 51 49 44 36 28 28 29 31 33 37 39 42 44 45 42 45 43 45 44 40 38 31 26 26 28 32 34 37 38 37
31 35 39 43 45 47 48 49 47 43 35 29 28 28 29 30 31 33 35 38 41 42 40 44 44 43 45 46 40 34 30 27 27 27 29 33 36 36
35 39 43 45 45 46 45 43 38 31 27 25 25 27 30 30 30 32 35 37 40 42 39 39 42 41 43 43 41 34 28 26 27 26 28 29 32 33
40 44 45 45 45 43 38 34 27 24 23 24 26 28 29 31 32 34 34 36 35 33 33 34 35 36 38 40 41 33 32 26 24 26 27 28 29 32
43 44 44 43 41 37 30 25 23 23 24 26 27 28 30 31 32 35 35 36 34 29 28 30 32 35 37 37 39 36 31 35 26 24 26 26 27 28
45 44 40 36 32 27 21 20 21 22 24 27 28 29 31 31 32 34 34 34 35 34 29 26 29 32 34 36 35 32 32 29 28 30 30 30 28 28
44 41 36 30 25 17 14 16 19 21 24 25 27 30 31 32 33 32 34 35 34 33 31 30 31 31 29 25 29 27 23 27 27 26 27 30 27 22
41 37 31 24 16 13 13 15 17 21 23 25 27 29 31 32 34 33 33 34 32 32 30 30 30 33 35 33 27 30 36 30 31 28 27 29 32 27
37 31 23 16 11 11 13 15 18 20 23 25 26 29 31 34 33 33 33 33 33 33 31 29 29 30 33 36 37 30 28 30 31 30 29 30 28 26
29 21 13 8 8 11 14 17 19 21 23 24 26 28 30 32 32 32 31 31 32 33 32 30 28 27 28 30 30 28 24 23 26 30 30 30 29 26
15 9 6 6 9 11 14 17 18 21 21 23 25 28 30 32 32 31 31 32 31 32 32 30 28 27 26 25 27 29 31 29 26 23 21 24 27 32
7 5 5 7 10 12 15 17 18 20 22 24 26 29 31 32 32 31 31 31 32 33 32 29 27 26 22 21 23 26 30 35 39 36 25 23 24 25

GFSNE_700_spd_066.txt.gz
Wind_Speed
36 33 35 35 41 33 41 36 36 39 39 37 40 43 47 47 47 48 50 52 53 55 56 58 59 61 63 63 64 65 65 64 60 56 52 47 47 45
38 37 39 36 44 37 38 40 39 40 43 43 44 45 45 46 47 49 51 53 55 57 60 62 64 66 65 65 65 64 62 55 48 46 44 43 42 40
42 43 39 41 48 42 38 37 35 39 43 46 49 46 46 46 48 50 52 56 58 59 60 62 64 64 62 62 59 54 49 46 45 43 43 42 41 38
45 45 41 43 42 38 37 34 36 40 45 47 47 47 47 47 50 52 55 58 60 59 59 59 59 57 55 53 49 46 46 45 44 43 42 41 38 37
37 43 41 39 37 34 31 34 39 41 43 46 48 48 49 51 54 56 58 59 59 56 51 51 49 46 44 42 43 44 44 43 43 44 43 40 38 37
46 40 42 34 30 32 34 35 37 40 41 43 47 50 53 56 57 59 60 58 56 48 40 41 39 38 39 40 42 42 42 41 42 43 42 41 40 38
32 27 26 27 31 32 34 34 37 40 42 45 49 52 54 55 58 58 57 54 46 41 38 37 36 35 33 36 40 40 41 42 43 44 44 43 42 40
21 27 28 26 28 31 34 35 39 41 44 48 51 51 53 54 54 51 47 44 43 41 39 38 38 36 35 37 38 39 39 40 42 42 41 42 42 41
23 23 25 28 30 32 34 37 39 43 47 50 51 51 52 48 45 41 39 39 40 41 43 43 42 43 41 38 36 35 35 35 36 37 38 40 41 41
20 22 25 28 30 33 37 40 42 44 46 46 46 45 41 37 36 37 38 40 41 41 42 46 42 44 43 41 36 32 30 30 31 34 36 40 42 44
22 24 27 30 33 37 41 44 44 44 44 43 40 35 31 31 32 36 37 40 41 40 39 46 43 44 41 39 36 31 25 24 28 33 36 40 43 44
25 27 31 33 36 40 43 45 46 45 41 34 26 25 26 28 30 34 37 40 41 43 39 47 44 43 42 37 34 30 27 24 25 28 33 36 38 41
26 29 33 37 39 42 44 45 44 40 33 26 22 23 24 26 29 31 34 37 39 40 37 45 45 42 43 42 36 31 27 23 23 24 27 31 34 36
29 34 37 41 44 44 44 42 39 33 25 21 21 23 26 27 28 30 32 34 37 40 39 39 45 42 43 42 38 31 27 24 25 24 26 29 32 34
36 40 43 44 44 42 39 35 30 22 19 19 21 24 26 27 30 31 31 34 31 32 35 36 38 40 41 41 41 32 32 24 22 25 26 27 28 29
39 42 44 44 42 37 31 26 19 17 18 20 22 25 27 28 30 34 34 34 32 26 27 32 36 37 37 36 36 33 29 33 26 26 29 27 26 26
44 44 41 37 32 28 23 17 16 17 20 23 25 26 27 29 30 33 34 33 33 34 30 28 31 33 34 35 34 30 29 26 27 29 29 29 26 26
43 41 36 29 21 15 11 13 16 18 21 23 25 27 29 31 31 31 33 33 33 32 33 32 32 31 29 26 29 26 23 28 26 26 27 29 24 20
40 35 27 16 10 7 8 11 14 19 20 23 24 26 29 30 32 33 33 33 32 32 31 32 32 33 33 31 24 29 32 28 28 27 27 28 29 21
33 23 11 6 5 7 10 13 17 18 20 22 23 25 29 31 31 32 33 34 33 32 31 30 28 29 32 34 30 21 23 29 32 35 32 29 26 22
18 8 5 4 5 8 11 16 18 18 20 22 25 28 30 31 31 33 33 32 32 33 31 28 26 25 26 25 23 20 22 29 32 36 38 39 33 25
8 5 5 5 7 10 13 17 19 20 22 23 25 28 30 32 33 33 33 34 32 32 31 28 26 26 25 26 26 27 28 29 30 31 32 35 34 35
4 4 5 7 9 11 14 17 19 21 23 24 26 28 31 32 32 32 32 33 33 34 32 29 26 26 25 26 26 26 27 28 30 32 28 32 34 33

GFSNE_700_spd_069.txt.gz
Wind_Speed
39 42 43 45 43 46 41 38 41 45 41 38 40 42 41 42 43 48 48 50 50 51 51 52 53 55 57 59 61 62 62 63 63 63 62 62 62 61
41 42 43 45 46 46 43 44 43 46 44 39 36 38 39 42 44 47 48 50 50 52 53 55 59 60 62 64 65 65 65 64 62 59 54 51 49 48
43 43 44 48 61 57 46 45 42 45 41 36 37 36 40 40 43 46 48 50 51 53 56 58 60 61 63 63 62 61 58 56 52 49 46 45 44 44
39 42 50 45 58 45 45 40 38 35 37 35 36 38 40 40 44 46 48 51 54 55 56 59 59 56 55 53 51 49 48 47 46 45 44 43 42 41
40 44 51 49 47 37 34 35 36 33 32 35 38 40 42 43 44 47 51 52 54 53 52 51 47 43 41 41 42 43 44 44 44 44 44 43 41 39
40 43 38 34 34 30 27 31 34 32 33 37 39 40 43 45 49 52 53 53 52 44 40 37 36 36 36 39 41 42 43 45 45 45 44 43 41 40
37 38 33 28 27 27 30 29 29 33 35 36 38 42 46 48 51 53 53 51 43 32 32 31 31 33 34 36 37 39 41 44 45 46 46 45 45 43
30 22 22 25 26 24 26 29 30 33 35 39 42 46 48 49 50 49 46 41 34 29 33 35 34 35 36 37 37 37 37 39 40 41 42 42 42 42
20 20 21 18 23 27 28 30 31 35 40 43 46 46 48 47 48 41 33 32 32 32 36 39 35 35 35 34 32 33 35 36 36 38 39 39 39 40
18 17 20 24 26 26 29 31 34 38 42 43 45 45 44 40 35 30 30 33 35 32 36 43 34 36 33 30 27 27 27 29 31 34 35 36 38 40
16 19 21 24 26 30 34 36 38 41 42 43 43 41 35 28 27 29 31 34 36 31 33 42 35 38 33 26 24 22 23 25 26 28 33 37 38 39
17 20 23 27 31 34 39 41 43 42 40 37 33 28 24 23 26 29 31 34 36 36 36 44 39 39 39 28 26 25 23 23 25 28 31 34 37 39
21 24 28 31 35 39 42 43 41 38 32 26 19 17 19 22 25 27 30 33 34 34 34 43 43 41 42 40 30 27 25 23 24 25 28 30 32 35
24 28 32 36 40 41 40 37 35 29 22 16 15 17 19 21 23 25 28 30 33 36 34 38 42 42 42 40 34 25 24 24 23 25 26 27 29 32
31 35 38 41 41 39 36 31 23 16 12 13 16 19 21 22 25 26 28 29 28 30 32 35 38 38 39 38 39 30 30 21 24 26 28 27 26 28
36 39 40 40 38 32 23 15 10 9 12 14 16 19 21 22 25 28 28 29 26 23 27 31 34 35 35 36 34 30 28 32 26 25 28 27 27 27
38 38 37 33 26 17 11 8 9 12 15 17 19 20 21 22 24 28 30 30 30 28 26 27 32 34 33 31 29 26 22 19 23 24 25 25 23 24
37 33 27 17 8 5 6 9 11 15 16 18 20 21 23 25 27 28 31 32 32 31 30 30 30 29 27 26 27 18 16 17 17 23 27 29 26 18
30 22 12 4 4 4 6 9 12 15 16 19 21 23 26 27 29 30 31 31 31 32 30 30 31 33 31 28 22 21 21 24 26 27 29 29 28 26
18 8 4 5 4 4 7 11 14 15 17 20 23 25 27 29 30 30 31 33 33 32 30 29 30 30 30 32 30 22 25 27 29 29 28 27 27 24
7 3 3 2 3 5 8 12 14 16 18 20 23 25 27 30 30 31 32 32 34 34 32 30 28 28 28 29 29 25 20 23 26 28 30 30 31 27
2 2 1 2 4 7 9 13 16 18 20 22 24 26 28 30 30 30 32 33 33 33 32 31 30 28 26 28 28 26 23 20 22 25 24 26 33 38
4 3 3 4 7 10 12 14 17 19 21 23 25 27 29 29 30 31 32 33 34 34 35 34 31 29 27 29 30 28 25 24 25 26 19 26 32 35

GFSNE_700_spd_072.txt.gz
Wind_Speed
45 41 41 43 44 48 44 50 55 52 48 53 48 49 46 44 46 47 48 47 45 46 47 48 49 50 51 53 55 56 58 60 62 63 65 65 64 64
43 43 47 47 44 45 51 51 48 47 61 55 49 45 47 43 44 41 42 45 45 47 47 51 52 54 55 57 59 61 64 65 66 65 63 62 58 56
46 42 47 39 40 41 48 45 56 53 50 47 42 40 39 40 41 39 38 43 48 48 49 52 55 57 58 61 62 63 61 58 53 51 49 48 47 47
42 39 43 44 35 39 44 51 56 41 41 37 37 35 36 36 36 36 43 45 47 48 51 55 57 59 60 57 55 50 46 43 44 45 45 47 47 47
38 37 40 41 42 43 45 44 42 34 33 35 35 35 34 36 38 41 43 45 47 49 53 56 54 52 47 44 41 40 43 45 46 47 48 48 49 48
31 34 35 40 40 39 41 42 35 33 31 30 31 34 36 39 41 43 45 48 51 51 50 48 42 39 37 39 40 41 43 44 46 48 47 48 48 49
33 35 33 38 39 35 30 28 30 29 28 33 37 36 39 42 45 47 50 52 49 43 41 35 33 33 34 36 36 37 40 42 44 44 45 45 45 46
34 32 32 31 27 27 28 25 26 28 32 35 37 39 42 44 47 49 50 48 42 30 34 30 33 34 33 33 32 35 39 41 43 41 42 41 41 44
22 24 24 23 23 24 26 26 29 32 34 38 40 42 46 47 49 45 41 38 32 29 34 35 33 33 31 29 29 32 35 39 39 39 41 39 39 42
17 18 19 20 21 23 27 28 31 34 37 41 44 45 44 43 41 36 31 28 27 28 32 39 33 35 30 27 27 28 31 35 38 38 40 41 39 40
14 15 18 21 24 26 30 32 34 38 41 43 43 42 38 33 29 26 27 29 31 28 31 38 32 37 33 24 24 25 26 29 33 36 37 39 38 37
15 17 19 23 27 31 35 38 39 40 40 38 35 31 26 22 23 26 29 30 32 33 33 41 32 36 39 23 25 25 26 27 31 32 34 37 37 38
18 21 25 29 33 37 40 41 40 36 32 25 19 16 17 19 23 25 28 31 32 31 33 40 37 36 38 39 28 27 27 26 30 29 30 33 34 36
23 26 30 34 38 39 39 36 31 22 14 10 10 13 16 20 22 24 26 28 32 34 32 37 39 38 38 37 37 27 27 25 25 28 28 28 29 31
28 32 36 38 38 35 29 20 12 7 7 9 12 15 17 19 20 21 23 25 27 31 33 35 37 36 37 37 37 28 29 22 22 22 22 22 23 26
34 36 37 35 29 21 12 5 3 5 8 11 14 16 18 20 22 25 26 26 26 27 30 33 35 37 37 36 33 29 29 27 18 19 16 19 23 26
35 34 31 25 16 5 1 1 4 8 11 13 15 17 19 21 24 27 29 30 30 29 27 30 34 37 37 37 30 29 27 22 21 19 24 24 22 24
32 27 20 11 3 1 1 3 7 11 13 15 17 19 21 23 25 27 30 31 32 31 30 30 31 33 32 31 28 26 24 24 23 24 27 30 27 24
25 17 9 1 3 2 3 7 10 12 14 16 18 21 23 24 26 27 29 30 31 32 31 30 31 35 37 34 26 25 26 26 28 25 25 27 27 23
17 9 3 4 4 5 6 9 11 13 15 17 19 21 23 25 27 29 30 32 32 32 31 29 31 33 35 36 33 24 25 28 27 27 25 24 24 21
12 7 7 7 7 8 10 12 14 15 17 18 20 23 25 27 29 31 31 32 33 33 32 30 30 31 32 34 33 28 24 26 28 29 28 28 27 25
11 9 9 9 10 10 12 15 17 19 20 22 23 24 26 28 30 31 32 33 32 33 34 32 32 32 33 34 33 31 27 26 26 27 29 31 31 35
12 11 11 11 11 12 14 15 18 21 22 23 24 26 27 28 30 32 33 33 33 34 36 37 35 33 33 35 34 32 30 28 27 24 22 28 31 37

GFSNE_700_spd_075.txt.gz
Wind_Speed
52 52 51 50 52 55 60 47 55 54 52 44 50 46 49 49 51 54 54 48 47 46 46 46 46 47 48 48 49 50 50 51 53 55 57 59 59 60
52 51 51 51 51 52 51 48 54 50 45 44 47 43 46 50 47 46 41 45 46 45 45 43 44 49 50 50 51 53 53 55 57 59 59 58 56 52
45 47 50 50 42 48 46 45 44 40 37 39 44 48 44 44 37 37 39 41 40 41 42 43 47 49 51 52 54 55 56 58 58 56 52 47 44 43
44 44 44 44 45 40 45 40 39 42 44 43 41 41 37 37 36 36 36 37 38 40 43 46 49 51 53 54 55 55 54 52 48 44 43 44 45 46
41 41 38 35 37 40 43 44 47 42 42 40 40 37 35 35 37 36 37 40 41 43 45 47 49 52 52 52 50 46 44 42 42 44 45 46 44 42
33 31 34 33 39 37 39 41 39 42 39 37 33 33 34 36 37 38 39 41 43 44 47 49 49 48 45 42 40 39 40 41 43 45 45 44 43 40
30 34 30 35 34 35 35 37 34 31 31 31 31 34 35 36 39 41 42 44 44 46 47 45 44 40 33 34 35 35 38 42 44 44 44 44 42 39
26 28 36 32 34 34 32 29 27 28 29 32 34 36 38 41 43 44 45 46 44 37 41 32 31 30 31 31 30 32 37 41 43 43 44 44 42 37
21 17 21 22 24 23 24 26 27 28 32 35 38 40 43 44 44 43 42 42 34 27 29 27 29 31 29 28 29 32 36 39 40 41 43 44 44 39
14 15 17 16 18 19 24 25 29 32 36 39 41 42 43 43 41 37 31 24 22 23 30 34 30 32 28 24 27 29 31 34 37 39 42 43 43 40
11 13 14 16 20 23 27 30 33 37 40 41 41 41 37 32 26 20 20 23 26 23 29 34 29 34 28 21 23 26 27 30 33 34 36 37 38 37
12 15 18 22 26 29 32 35 38 40 40 38 34 28 21 17 18 21 23 25 28 26 30 35 28 34 35 19 21 24 26 29 31 31 33 34 33 35
17 20 23 28 31 35 38 39 37 34 29 22 16 13 14 17 20 22 25 26 27 27 31 37 33 32 34 35 23 25 28 27 28 26 29 29 27 29
22 26 30 34 37 38 37 32 26 17 9 6 8 12 15 19 21 22 24 26 29 31 30 35 37 37 38 35 32 25 26 27 27 28 26 23 21 21
27 31 35 37 35 32 26 18 8 3 4 8 11 14 16 18 20 22 24 27 28 29 31 33 36 37 38 36 35 29 32 24 25 27 24 19 16 20
33 35 35 33 27 21 13 4 1 4 8 11 12 14 15 18 21 23 25 27 27 25 28 31 35 37 36 36 36 34 31 31 27 27 25 23 24 26
35 35 31 25 18 9 3 2 4 7 10 12 14 16 18 20 22 25 27 28 28 26 25 28 32 35 36 36 35 34 32 28 27 27 28 28 28 28
35 31 25 18 8 4 5 5 6 9 11 13 15 17 19 20 22 25 28 29 29 29 29 30 32 33 33 31 32 31 29 28 27 27 27 28 24 21
33 28 21 13 7 7 7 7 10 12 14 16 17 18 20 21 24 26 28 30 30 31 31 32 33 35 37 36 32 32 35 28 29 30 30 29 29 23
30 24 18 12 10 10 11 11 13 15 17 19 20 22 23 24 25 27 29 31 32 33 33 33 34 35 37 39 38 31 29 30 30 30 30 29 29 27
27 22 16 14 14 14 15 15 16 18 20 21 23 24 26 27 27 29 30 31 34 36 35 32 32 33 35 36 36 34 29 27 27 31 31 31 29 26
26 21 17 16 17 17 17 17 19 21 22 24 25 27 28 28 28 29 30 33 34 36 36 34 32 34 35 36 36 35 32 27 25 26 26 28 30 34
26 21 19 18 19 19 19 20 21 23 25 26 28 29 29 28 28 29 30 32 35 37 36 36 36 37 35 36 37 36 35 30 28 25 21 25 28 33

GFSNE_700_spd_078.txt.gz
Wind_Speed
48 49 48 50 51 49 48 50 50 54 56 54 54 52 46 43 38 37 42 41 46 42 41 37 39 43 44 45 46 46 46 46 46 47 48 49 49 50
43 43 43 44 45 46 47 49 50 51 59 48 45 37 37 44 39 38 38 39 37 34 35 37 40 41 41 43 45 46 46 47 48 49 51 51 51 51
41 43 43 42 41 42 43 44 43 36 38 32 33 37 34 37 35 37 36 35 33 32 35 37 39 41 42 43 44 45 47 49 50 52 52 52 50 47
39 40 41 40 40 39 40 35 40 39 28 35 41 36 36 35 33 31 31 31 33 34 36 38 41 43 43 45 46 48 50 50 50 50 49 46 43 40
37 38 37 37 35 36 41 37 26 39 45 42 38 34 29 29 29 30 31 33 33 35 38 40 43 45 46 47 46 47 48 47 45 43 40 39 39 39
38 39 31 32 32 37 42 41 37 36 36 34 33 30 28 30 31 32 32 35 34 38 41 43 45 46 45 43 41 38 37 36 36 37 39 39 38 37
30 33 30 30 29 34 38 36 28 28 34 33 31 29 29 33 34 35 38 39 37 42 44 42 43 39 31 28 28 29 32 36 38 39 39 38 37 36
24 26 31 27 24 26 27 26 26 25 26 30 29 30 33 36 38 39 42 42 39 38 38 24 28 21 23 25 27 30 33 35 37 38 38 38 37 36
9 13 15 15 18 20 18 19 19 23 27 30 32 35 37 40 41 40 39 34 26 22 23 16 23 23 23 22 25 29 31 33 35 36 37 37 36 36
9 9 10 12 14 16 17 20 24 28 31 35 38 39 40 39 35 28 20 15 16 20 28 25 24 23 21 20 24 27 30 32 33 35 36 36 36 37
8 9 11 14 17 20 23 26 30 34 37 40 39 36 29 20 14 13 16 19 18 18 25 27 24 27 19 16 19 23 27 29 31 32 33 34 34 33
11 14 17 21 24 27 30 34 37 38 37 31 23 13 9 11 15 18 20 20 23 20 28 25 24 31 24 14 15 19 23 27 30 31 30 30 30 29
16 19 23 26 30 33 35 36 34 28 21 13 7 7 11 14 17 19 20 21 22 23 29 31 27 27 30 28 18 20 23 26 29 29 28 27 28 28
22 24 28 31 34 35 33 29 23 15 7 4 7 10 13 16 17 19 20 22 24 26 27 31 32 33 34 31 29 23 23 25 28 28 26 25 25 23
25 29 32 34 33 30 25 19 10 4 3 6 9 12 14 16 18 19 21 22 23 25 27 29 32 33 34 35 33 29 31 24 26 28 27 25 22 22
27 30 33 33 30 25 18 8 5 5 5 8 11 13 14 16 18 19 20 22 22 22 25 28 29 32 33 33 33 31 29 33 29 28 26 23 23 23
30 32 33 31 26 20 11 6 6 7 9 10 11 13 15 16 18 20 21 22 24 24 24 27 29 31 32 33 32 32 32 29 30 29 28 27 23 22
31 32 32 27 21 14 9 9 9 10 12 13 14 16 17 19 20 22 24 25 25 26 28 29 31 32 31 28 31 33 31 31 30 29 27 26 21 20
30 31 30 25 19 13 12 12 12 13 15 17 19 20 22 23 25 26 27 28 28 28 29 31 32 35 35 34 28 28 32 32 34 30 28 27 26 20
30 30 28 24 19 15 14 14 15 16 18 19 21 23 25 27 27 28 28 30 30 30 29 30 33 35 36 38 38 28 28 30 32 32 29 26 25 23
31 30 28 25 21 18 17 16 17 18 20 21 23 25 28 29 29 29 29 29 30 31 31 30 31 33 35 36 37 32 28 26 30 32 32 30 28 22
30 30 28 25 22 19 19 18 19 20 21 23 24 26 29 29 30 29 29 30 29 30 32 32 31 31 31 34 36 35 33 30 28 29 27 30 31 31
30 31 29 26 23 21 21 21 21 22 24 25 26 28 29 28 29 29 29 30 31 31 33 34 33 32 32 34 36 35 36 35 33 31 23 23 26 27

GFSNE_700_spd_081.txt.gz
Wind_Speed
42 42 41 40 39 40 38 38 38 42 44 45 47 49 45 45 34 27 33 32 34 34 39 42 44 44 38 35 37 37 38 39 41 42 43 45 43 44
39 41 42 42 39 38 38 38 39 39 41 45 42 40 25 25 35 33 32 34 35 36 37 37 37 35 34 35 35 36 38 40 42 42 43 44 44 45
36 37 36 35 37 38 39 39 40 38 40 41 38 23 25 36 38 35 33 30 32 33 31 32 33 33 35 37 38 39 40 41 43 44 46 47 47 45
37 35 35 36 35 35 37 38 36 39 36 36 29 29 38 32 30 28 27 26 26 28 30 32 34 35 36 38 39 41 43 44 45 47 48 48 46 44
32 33 34 35 37 35 36 38 34 36 32 33 36 34 33 30 28 27 26 27 29 31 32 35 36 37 39 41 43 43 44 45 45 46 43 40 37 35
27 31 34 33 35 27 28 29 27 32 36 38 28 29 27 25 26 25 27 27 29 33 35 36 38 39 39 39 38 38 38 36 35 34 33 32 32 32
23 24 30 25 19 25 22 22 25 30 24 26 24 23 26 26 27 28 30 32 34 37 36 36 33 28 27 25 24 26 28 30 32 33 34 33 32 31
19 16 8 14 12 14 15 18 19 19 19 21 22 25 28 29 32 34 36 35 30 30 19 19 16 17 20 22 25 28 31 33 34 35 34 33 31 30
9 9 9 10 11 11 13 16 17 19 22 24 27 30 32 34 34 33 27 18 15 17 15 15 19 19 20 21 26 29 31 33 33 34 33 32 31 30
6 6 7 9 11 14 17 20 23 26 28 30 32 34 33 30 22 14 11 13 18 22 24 18 20 18 18 21 25 28 30 31 31 32 33 32 32 32
6 9 11 13 15 18 22 26 29 32 34 34 32 28 22 13 8 11 14 15 16 20 26 24 23 19 15 18 21 25 28 30 31 32 32 32 32 31
9 12 15 18 22 25 29 31 33 32 31 27 20 13 7 7 11 13 15 16 18 19 24 21 21 25 13 9 14 20 24 27 29 30 31 32 32 29
13 17 20 23 26 29 31 31 30 28 22 15 8 6 8 10 13 14 15 16 18 21 26 24 20 22 23 18 15 20 22 23 25 27 30 31 29 26
17 20 23 25 27 29 29 28 26 21 13 7 7 8 10 12 13 14 17 18 19 21 23 26 26 26 26 25 24 21 21 23 23 25 27 28 27 26
20 22 24 26 28 29 28 26 20 13 8 8 9 10 12 14 15 16 18 18 19 22 24 26 28 28 30 30 28 26 25 20 24 26 28 26 25 25
21 23 25 26 28 27 24 20 14 9 9 10 11 13 15 16 17 18 19 21 20 22 25 28 29 29 29 30 30 28 30 31 26 26 28 26 25 24
23 24 25 26 27 25 21 16 11 11 12 12 14 15 16 18 20 22 23 24 25 24 24 27 30 30 31 31 31 31 30 28 29 30 30 29 22 21
23 24 25 26 25 23 20 15 14 14 15 15 16 17 18 19 20 23 25 27 26 26 26 28 31 31 28 24 28 30 31 32 31 31 31 33 26 20
24 25 26 26 25 22 20 17 17 18 18 19 19 20 20 21 22 24 26 27 26 26 25 27 31 35 33 30 21 26 34 30 33 30 30 30 29 21
25 25 26 26 25 23 21 19 20 22 22 22 22 23 23 23 24 27 27 28 27 26 24 24 28 33 34 35 32 22 24 30 32 34 34 31 29 25
24 25 25 26 26 24 23 21 21 24 25 25 25 24 25 26 26 28 28 28 28 27 25 24 26 31 33 36 36 31 26 28 31 35 36 38 35 25
25 26 26 26 26 26 24 22 22 24 26 27 26 26 27 28 28 29 28 28 27 27 27 26 27 29 31 35 36 34 30 27 29 31 29 33 38 35
27 27 28 27 27 27 26 24 23 24 27 28 28 28 29 28 29 29 29 28 28 27 28 29 29 30 32 34 35 34 34 34 35 34 27 23 29 31

GFSNE_700_spd_084.txt.gz
Wind_Speed
39 40 41 41 40 40 38 38 38 45 40 39 39 39 40 45 40 39 28 27 28 32 34 36 37 38 39 40 43 44 41 39 40 38 37 37 37 37
31 32 34 34 36 35 35 36 35 37 39 39 38 40 41 39 39 27 30 30 34 35 36 36 36 37 38 37 36 36 35 37 37 37 37 39 39 39
34 34 35 36 35 36 36 34 36 37 38 38 38 38 41 39 34 37 30 31 32 31 33 35 33 31 31 33 34 35 36 37 38 40 41 42 41 41
34 34 34 33 34 32 32 31 34 36 35 36 34 40 37 33 34 30 29 31 29 28 28 28 30 31 32 34 36 37 39 41 42 44 44 44 43 43
29 29 28 28 29 30 30 31 32 30 29 29 31 31 33 37 32 27 26 25 27 27 29 31 32 34 36 38 40 42 43 45 45 44 43 41 39 38
20 21 22 25 26 30 28 31 24 22 25 24 28 28 27 27 26 24 24 25 28 31 33 34 36 38 40 41 41 41 40 39 36 33 31 30 29 29
19 18 21 23 27 20 16 19 17 21 22 23 23 24 23 24 25 26 27 30 32 34 33 33 27 24 22 21 23 25 26 28 29 30 31 31 30 29
16 16 16 13 10 9 11 14 16 16 17 19 22 24 26 28 29 30 31 31 27 19 14 18 14 19 21 24 26 28 30 31 32 32 31 30 29 28
12 12 9 8 8 8 10 12 15 18 21 24 27 29 31 32 32 30 23 16 13 13 13 18 18 20 22 25 27 29 31 32 32 32 30 29 28 26
6 6 6 7 9 12 15 18 21 24 27 29 31 32 31 28 22 14 9 12 16 18 17 15 17 19 22 26 27 30 32 33 32 32 31 29 27 27
5 6 8 11 13 16 20 23 27 29 30 31 30 28 23 16 9 8 11 14 17 21 22 20 20 18 18 22 24 27 31 33 33 33 32 30 28 28
6 9 12 15 17 19 23 26 28 29 30 30 26 20 13 7 8 10 13 15 17 19 22 20 20 21 12 11 16 22 26 30 32 32 31 30 29 29
9 12 15 18 20 22 25 28 29 30 29 26 19 12 8 9 11 12 14 16 18 19 22 21 19 21 19 17 15 22 26 26 27 29 31 30 29 30
12 15 18 20 22 24 26 27 27 27 25 19 12 9 9 12 13 15 16 16 18 21 23 24 23 23 23 22 21 19 24 25 26 27 28 29 29 30
14 17 19 21 22 24 25 26 25 24 19 13 11 11 13 15 15 17 18 18 20 24 25 27 28 27 27 26 26 25 26 21 25 27 27 26 26 27
15 17 19 21 22 23 24 24 23 21 16 14 14 14 15 17 18 19 20 21 21 24 28 30 32 32 29 28 29 28 28 27 25 27 28 26 26 26
16 18 19 21 22 23 23 23 22 20 17 17 18 18 19 20 21 22 23 24 24 24 25 29 33 33 31 29 28 30 30 28 28 27 28 26 24 24
17 18 19 20 21 22 22 23 22 20 20 21 22 23 23 24 24 26 26 26 26 28 28 29 30 32 29 24 29 28 29 28 28 29 31 32 26 26
18 19 19 20 21 22 23 24 23 22 22 23 25 26 26 27 27 27 28 29 28 29 28 28 29 33 31 27 21 26 31 29 30 29 32 34 34 29
20 20 21 21 22 23 24 24 24 24 24 25 26 28 29 29 29 29 30 31 31 30 28 27 28 31 32 32 28 18 26 33 33 32 32 34 34 32
21 22 23 23 24 24 25 25 25 24 24 25 27 29 31 32 31 32 31 31 32 32 29 25 27 29 31 32 32 28 23 26 31 33 33 36 37 34
22 24 25 26 26 25 25 26 26 26 25 25 26 29 32 34 34 33 33 32 32 32 30 29 27 28 29 32 33 32 28 26 27 29 29 34 38 40
24 27 28 28 27 26 26 27 27 28 28 27 27 29 31 33 34 34 33 33 33 31 31 30 28 29 30 32 34 35 34 31 31 29 25 29 32 35

GFSNE_700_spd_087.txt.gz
Wind_Speed
35 35 36 36 36 37 37 37 37 40 40 39 36 37 37 36 35 42 39 42 26 28 30 31 36 35 37 38 39 38 39 39 41 40 38 36 36 35
29 29 30 31 32 34 34 34 34 36 38 37 36 36 36 36 36 36 39 32 35 33 32 35 34 35 35 34 35 35 34 34 35 35 34 35 35 33
31 31 32 33 33 34 34 33 34 31 33 33 34 34 33 32 30 35 33 29 35 32 32 34 32 30 31 30 31 33 34 35 36 36 36 37 37 37
33 33 33 32 32 32 33 32 30 30 31 31 31 32 30 29 29 27 30 36 31 30 28 28 28 29 30 31 32 34 36 38 39 40 41 41 41 41
31 29 29 28 27 27 27 27 28 28 29 28 25 25 23 27 27 27 29 29 28 26 28 29 31 32 34 35 37 38 38 39 40 40 38 36 36 35
26 25 22 22 23 25 25 27 26 23 22 22 23 26 24 23 23 24 25 26 27 29 31 33 33 33 29 27 27 27 28 28 28 27 28 28 27 27
19 18 18 19 21 17 15 13 12 15 16 16 18 20 22 23 25 27 29 30 32 33 32 29 20 20 20 23 24 26 28 29 30 30 30 30 30 29
15 15 14 15 14 12 11 11 11 13 15 18 21 24 27 29 31 33 34 34 32 26 18 17 17 20 21 22 23 25 27 28 28 28 28 27 27 27
13 11 12 10 9 8 9 12 15 18 20 23 27 30 32 34 34 34 32 27 20 13 14 19 17 19 21 24 25 27 29 29 28 27 27 26 26 25
9 8 8 8 10 10 13 16 19 22 24 26 29 31 31 31 29 26 20 14 13 14 13 14 18 18 22 24 25 28 30 30 29 28 28 27 26 25
8 7 7 10 12 14 17 19 22 25 27 28 29 31 30 26 21 14 12 13 15 16 15 14 18 16 19 22 24 28 30 31 31 31 31 30 28 26
7 8 11 12 14 17 19 21 24 26 28 29 30 29 25 19 13 11 13 15 16 18 19 17 19 20 15 18 23 27 31 33 33 33 32 31 29 27
9 10 12 14 16 18 20 22 24 26 27 28 28 25 19 13 12 13 15 16 18 20 22 21 20 22 21 20 15 23 26 29 30 30 31 30 30 30
10 12 14 16 17 19 20 22 23 25 26 26 25 20 15 14 15 15 17 18 20 22 25 26 25 27 27 26 23 20 25 26 30 29 29 28 29 30
11 13 15 17 18 19 20 21 22 23 24 24 22 18 17 18 18 19 20 20 21 25 27 29 30 30 31 30 30 23 28 23 27 28 28 27 27 27
13 14 16 17 18 19 20 21 22 23 23 23 21 20 20 22 22 23 23 23 23 27 30 31 32 34 33 32 31 27 27 30 26 28 28 26 26 26
14 15 16 17 18 18 19 20 22 22 23 23 22 22 24 25 26 27 26 27 26 27 27 33 36 37 36 34 31 29 28 29 30 29 29 27 25 26
14 15 17 18 18 19 20 21 22 23 23 23 24 24 26 27 28 30 32 31 30 30 30 31 33 35 35 32 31 30 29 31 30 29 30 30 26 24
15 16 17 19 20 21 22 23 23 24 24 24 24 26 27 28 30 31 34 35 34 33 31 33 34 37 37 33 26 26 30 31 30 29 31 31 32 29
16 17 18 20 21 22 24 24 25 25 25 26 26 27 28 29 30 32 34 36 36 34 32 33 35 36 36 36 33 20 27 31 32 30 31 32 34 34
17 19 20 22 24 25 25 26 26 27 27 27 28 29 30 31 32 33 35 36 37 37 35 33 34 35 34 34 33 28 22 27 32 34 34 36 37 35
20 21 22 24 26 27 27 28 28 28 29 30 30 31 32 32 33 34 36 37 36 37 36 35 34 34 33 34 33 33 27 23 25 31 34 36 38 40
22 23 25 26 28 29 29 30 29 30 31 32 32 33 33 34 35 35 36 37 37 36 35 35 34 34 33 32 33 33 32 29 30 30 28 29 32 35

GFSNE_700_spd_090.txt.gz
Wind_Speed
38 37 35 33 32 33 33 33 34 37 37 36 35 36 32 34 30 30 31 36 32 29 31 29 31 29 32 37 32 32 33 32 34 34 34 31 32 33
31 30 29 30 30 30 30 32 33 36 38 37 36 32 33 29 31 30 30 27 29 31 25 27 29 28 31 29 28 29 28 28 29 30 30 30 30 31
32 31 31 31 32 31 31 32 33 32 34 34 32 30 29 29 30 28 29 25 28 24 25 26 25 27 26 26 27 28 30 31 32 33 33 34 34 34
32 32 31 31 30 30 29 29 28 28 28 27 30 28 27 24 25 24 26 23 24 22 23 25 25 27 28 29 30 32 33 35 35 34 32 32 32 33
32 30 30 29 27 26 23 24 25 26 25 29 25 25 22 23 23 21 20 20 21 22 24 26 28 30 31 32 34 31 25 22 23 24 24 24 25 25
29 28 26 24 22 20 21 23 21 20 17 14 16 16 17 18 19 22 23 25 27 28 30 31 32 33 31 24 19 19 21 23 24 25 26 26 26 25
25 23 20 18 17 18 16 15 14 12 11 11 13 16 18 22 24 27 29 31 33 33 33 34 28 21 17 18 20 20 21 21 22 22 23 24 25 25
18 16 16 14 15 15 13 11 9 9 12 14 18 21 24 26 29 31 32 34 35 32 28 22 14 17 19 19 18 20 21 21 22 21 20 20 22 23
15 14 12 12 12 11 9 10 11 13 16 19 21 24 26 28 30 31 32 31 28 20 14 17 16 18 19 19 19 21 23 23 23 21 21 21 22 23
12 11 10 9 10 10 11 13 14 17 19 22 24 26 28 30 31 31 28 24 18 12 13 16 18 18 21 21 22 23 24 25 25 24 23 23 24 24
9 7 8 10 11 12 14 15 17 19 21 22 25 27 28 29 29 27 21 16 15 14 15 16 18 17 20 22 23 25 27 27 29 28 26 25 25 24
7 8 10 11 13 14 16 17 19 20 21 22 24 25 26 26 25 21 16 15 17 18 19 18 20 20 19 21 23 27 29 31 32 34 32 29 28 26
9 10 11 13 14 15 17 18 19 20 20 22 23 23 24 22 20 17 17 19 19 20 22 21 21 24 23 22 19 24 29 31 34 35 36 32 29 29
10 12 12 13 14 15 17 17 18 19 20 20 21 22 22 20 18 18 20 20 21 22 24 25 24 26 27 26 24 23 26 30 32 34 34 31 29 29
12 12 12 14 15 16 16 17 17 18 19 20 20 21 21 20 20 21 22 23 23 26 27 29 29 30 30 29 31 26 29 26 27 29 31 28 27 27
12 12 13 14 15 16 16 17 18 19 20 21 21 21 21 21 22 23 25 26 26 29 32 33 34 34 32 31 32 30 30 31 26 27 28 25 25 26
13 13 14 15 15 16 17 18 19 20 21 22 22 22 22 22 24 26 27 28 29 29 30 37 40 39 37 34 32 31 32 28 29 28 28 27 24 26
14 14 15 16 16 16 18 20 21 22 23 23 23 24 24 24 26 28 30 31 31 32 33 35 37 40 39 34 36 35 32 30 31 30 30 31 26 24
15 15 16 17 17 17 19 21 23 24 24 24 25 26 26 26 28 29 31 33 34 34 34 36 38 42 41 38 30 32 33 31 30 29 29 31 29 25
17 17 17 18 18 19 21 23 25 26 26 25 26 27 28 28 29 30 32 34 36 36 36 35 37 42 42 42 37 24 29 31 31 30 29 30 30 29
20 20 20 20 21 21 23 25 26 28 28 28 28 29 30 31 31 32 34 35 37 38 38 35 35 40 40 40 38 30 24 28 30 31 30 31 30 30
23 23 24 23 23 24 25 27 28 30 31 31 30 31 32 33 33 33 35 37 37 39 40 38 36 37 38 39 37 34 28 25 27 30 31 33 33 34
27 26 27 27 27 26 27 28 30 32 34 33 32 32 33 34 35 36 37 38 39 39 40 39 36 35 36 37 37 34 31 29 27 27 27 29 31 34

GFSNE_700_spd_093.txt.gz
Wind_Speed
40 40 40 35 33 30 29 30 31 34 33 34 32 33 30 29 29 28 27 28 28 29 29 29 27 31 27 28 25 28 27 27 24 25 25 25 25 25
38 35 32 29 28 29 30 31 31 33 36 35 34 31 30 28 26 26 26 26 29 27 26 27 29 25 25 22 23 23 24 24 24 24 25 26 27 27
31 30 31 30 30 31 32 32 32 32 32 32 30 29 27 27 25 23 20 21 20 23 24 21 18 19 21 20 23 25 26 27 27 28 29 29 28 28
32 33 32 31 31 31 31 30 28 27 27 26 27 25 26 24 21 16 18 16 15 15 17 20 20 21 23 25 27 29 30 30 27 22 19 20 21 22
34 33 32 31 31 28 27 25 22 22 24 24 22 18 15 13 12 13 14 17 19 20 23 25 26 27 28 30 31 30 25 19 18 19 20 21 22 24
32 31 30 28 27 25 23 20 19 18 16 15 12 11 11 12 14 17 20 23 24 26 29 29 30 30 30 29 23 17 17 18 19 20 21 22 22 23
29 28 26 25 23 19 18 17 14 14 12 10 9 11 14 16 18 21 23 26 27 30 31 30 29 27 22 15 16 18 19 20 20 21 22 21 21 22
26 25 23 19 17 16 14 12 11 10 10 12 13 15 17 19 21 24 25 28 29 28 29 28 21 16 14 16 17 19 20 21 21 21 21 20 20 21
20 18 16 15 15 13 11 9 9 11 13 15 16 18 20 21 23 24 25 26 26 25 23 17 14 16 17 18 18 19 21 21 20 20 20 20 21 22
15 16 15 13 11 10 9 9 11 13 15 17 18 19 20 21 22 23 23 23 21 16 14 16 16 19 19 19 20 21 22 22 22 22 23 22 22 22
14 13 12 10 10 9 10 11 13 15 16 18 18 19 19 20 20 21 20 19 15 12 14 16 18 19 21 22 22 23 24 26 26 26 26 26 26 24
13 11 10 10 9 10 11 13 15 15 16 17 18 18 18 18 19 19 18 16 16 16 17 17 20 20 20 21 22 25 27 29 31 31 30 30 30 28
11 11 10 9 10 12 12 14 15 15 16 16 16 17 18 18 18 18 17 17 19 20 20 20 21 24 24 23 22 26 28 32 33 34 34 34 33 30
11 10 10 10 11 12 13 14 15 15 16 16 16 18 18 18 18 18 18 19 21 22 25 25 24 25 27 26 24 24 26 30 33 33 34 34 33 31
11 11 10 11 11 12 13 14 14 15 15 16 17 19 19 19 19 20 20 21 23 25 27 28 29 30 31 31 29 25 28 28 31 32 32 31 30 29
12 11 11 12 12 13 13 13 14 15 16 18 19 19 20 20 21 22 23 23 24 28 29 31 32 33 33 34 34 29 31 32 30 31 31 28 27 27
13 13 12 13 13 13 14 14 15 16 18 19 20 20 21 21 23 24 24 25 25 27 30 34 36 37 37 36 35 33 31 32 34 32 32 28 23 24
14 14 14 14 14 14 15 15 16 17 19 20 21 22 22 23 24 25 26 26 27 28 29 32 35 39 40 38 38 37 33 34 33 32 32 31 24 23
16 15 15 15 16 16 17 18 18 19 21 21 22 23 24 25 27 27 28 29 29 30 31 33 35 40 42 42 36 35 33 33 34 31 31 30 29 22
19 18 18 18 18 19 19 21 21 21 23 24 25 26 26 27 28 29 30 30 31 31 32 34 36 41 43 45 45 31 32 35 34 32 30 30 28 26
21 20 21 21 22 22 23 23 24 25 25 26 27 28 29 29 29 30 30 32 33 34 34 33 36 39 40 42 42 36 27 29 34 33 30 31 28 27
24 23 24 24 25 25 25 26 26 28 28 29 30 32 31 30 30 30 31 31 33 35 37 37 37 38 37 38 38 37 32 26 28 32 30 32 31 29
27 27 26 27 27 27 27 28 29 29 31 31 31 33 31 30 31 31 32 33 35 36 38 37 35 35 34 34 35 35 33 29 26 28 27 29 29 31

GFSNE_700_spd_096.txt.gz
Wind_Speed
42 41 41 40 40 39 36 33 32 32 30 31 30 30 32 30 30 29 27 27 26 26 27 28 27 28 29 31 30 27 26 25 22 22 23 23 23 23
41 41 40 38 36 33 30 30 32 33 35 33 32 32 31 29 27 25 25 24 24 25 26 26 26 27 28 25 24 24 24 24 24 25 25 26 27 28
37 35 37 33 33 31 32 31 32 33 34 34 32 30 28 26 24 24 25 23 22 23 21 20 21 20 21 20 22 23 25 27 28 29 30 30 26 22
33 35 34 36 33 33 32 31 31 31 32 30 29 27 26 23 22 20 18 17 19 18 17 18 19 22 24 25 26 28 29 30 31 31 25 21 20 20
33 33 35 35 34 33 32 31 30 29 27 26 25 22 17 14 13 12 12 14 18 20 21 22 25 26 28 29 30 30 30 28 22 19 19 20 21 21
35 34 34 34 33 31 30 29 27 25 22 22 18 14 10 10 11 13 16 19 21 23 24 25 28 28 28 28 26 23 18 16 18 20 20 21 22 23
34 34 32 32 31 29 27 25 22 20 18 17 13 11 11 13 15 18 20 21 22 25 26 26 28 25 22 18 15 15 17 18 19 20 22 23 24 25
32 31 29 28 27 24 22 19 17 16 14 12 12 13 14 17 19 20 22 23 24 24 25 24 21 17 13 13 16 17 19 20 21 22 23 23 24 26
29 28 25 23 21 19 17 16 14 13 12 13 14 16 17 19 20 21 22 23 23 22 21 17 14 13 14 15 17 19 20 22 23 23 23 23 24 25
25 21 20 18 16 16 14 14 12 12 13 14 16 17 18 18 20 20 21 21 20 18 16 14 15 15 16 17 19 20 22 23 24 24 24 24 24 25
19 19 17 15 15 13 13 12 12 14 15 16 16 16 17 18 18 19 20 19 16 15 15 16 18 19 19 19 20 22 23 25 26 26 26 26 26 27
17 16 15 15 14 13 13 13 14 14 15 15 15 16 16 17 18 18 18 17 16 15 16 17 19 21 22 22 23 25 27 29 30 30 30 29 28 29
16 16 15 14 13 13 13 13 14 14 14 15 15 15 16 17 18 18 18 17 17 18 18 20 21 23 24 24 24 26 29 31 34 35 36 34 31 31
17 15 14 13 13 13 13 14 14 14 14 14 14 15 17 18 19 19 19 19 20 21 23 23 24 26 27 27 26 27 30 32 35 37 39 39 35 34
16 15 14 13 13 14 15 14 15 14 14 14 15 17 18 19 19 19 19 20 22 24 25 27 28 29 30 31 30 28 31 32 35 37 39 39 36 35
16 15 14 14 15 14 14 15 14 14 15 16 17 18 19 20 20 20 21 22 23 26 28 29 30 31 33 33 34 31 33 35 33 36 38 37 35 35
17 16 15 15 15 15 15 15 15 15 16 17 18 19 19 20 21 22 23 24 25 27 30 33 34 34 35 35 36 35 35 35 37 37 38 37 32 33
18 17 17 17 16 16 16 16 15 16 17 18 19 19 20 21 22 24 26 26 26 27 29 32 34 37 39 38 37 36 36 37 37 38 38 40 29 29
20 19 18 18 18 18 18 17 17 18 18 19 20 20 21 23 24 25 27 28 28 28 30 32 34 37 38 38 39 35 35 34 37 37 37 36 35 24
22 20 20 21 20 21 21 21 21 21 21 22 23 23 24 25 26 28 29 29 29 29 29 33 35 37 38 39 39 32 34 35 34 34 34 34 32 28
23 23 24 23 22 23 24 24 24 24 24 25 25 26 27 27 29 30 29 29 30 30 30 31 35 36 37 37 36 33 31 33 34 33 33 34 30 26
26 26 27 26 26 26 27 27 27 28 27 27 28 28 29 29 31 31 29 28 30 31 32 32 34 35 35 37 36 35 32 29 31 32 32 33 32 27
28 30 30 28 29 29 28 29 29 30 29 31 30 30 31 31 33 31 29 29 30 31 33 32 33 33 33 35 34 34 32 28 28 28 27 29 30 30

GFSNE_700_spd_099.txt.gz
Wind_Speed
39 40 41 42 42 41 41 40 38 37 35 31 32 29 29 29 29 31 29 28 28 27 26 25 26 27 27 26 25 28 29 25 27 26 24 24 25 25
43 43 45 43 41 39 40 37 34 31 35 35 33 32 30 29 28 28 27 25 25 25 24 23 25 25 24 22 22 24 23 23 24 25 27 28 28 29
40 39 38 38 36 36 34 36 33 33 35 35 35 32 30 26 24 25 25 23 23 21 20 20 20 19 19 20 23 26 26 27 28 29 30 31 31 31
37 35 33 33 34 34 36 36 36 35 34 33 31 29 26 24 24 22 20 18 15 15 14 17 19 21 22 23 27 28 29 29 30 31 31 29 23 19
35 33 32 33 35 33 35 36 36 34 32 30 27 24 23 20 16 15 13 12 13 15 17 19 22 23 24 26 28 28 28 27 26 22 19 19 20 21
37 36 35 35 35 37 35 35 34 31 29 27 22 20 17 16 13 13 14 15 16 19 19 21 23 25 26 26 26 24 22 18 17 18 19 20 21 22
36 37 38 37 34 34 34 32 30 28 25 22 19 17 14 14 14 16 17 18 18 21 21 22 24 24 23 22 19 17 17 18 18 19 20 21 22 23
37 36 36 35 32 31 30 29 27 24 20 18 16 14 15 15 17 18 19 20 21 20 21 21 21 21 18 16 16 17 18 19 20 21 22 23 23 24
36 34 33 32 30 28 26 24 21 19 17 16 14 15 16 17 18 18 19 20 20 18 20 19 17 15 15 16 18 19 20 21 22 23 23 23 24 25
31 31 30 28 26 23 21 19 19 16 15 16 15 16 17 17 18 18 18 18 19 19 18 16 15 15 16 17 19 21 22 23 24 24 24 24 25 26
27 27 25 22 20 19 18 16 17 15 16 16 16 17 17 17 17 18 17 18 19 18 16 16 16 17 17 18 19 22 24 25 27 27 27 27 28 28
22 21 19 18 18 18 16 17 15 15 16 15 16 16 16 16 16 17 18 18 18 17 17 18 19 20 21 21 22 24 26 28 30 31 31 31 31 31
18 18 18 17 17 17 16 15 15 15 15 15 16 16 15 16 16 17 18 18 18 17 19 20 21 23 24 24 25 27 29 31 33 35 36 35 35 35
18 19 17 17 17 16 15 15 15 15 15 15 15 15 15 16 17 18 18 18 19 20 19 21 23 25 26 27 27 29 30 33 36 38 39 39 39 39
19 18 17 17 17 16 15 15 15 14 15 15 15 16 16 16 18 18 19 19 20 21 22 23 25 27 28 29 30 29 32 32 35 38 39 39 39 40
19 19 19 18 17 16 15 15 15 15 15 16 16 16 16 18 18 18 18 20 21 23 24 25 27 28 29 31 32 30 34 36 35 38 40 39 39 39
21 21 19 18 17 16 16 16 16 16 17 16 16 16 17 17 18 18 19 21 23 24 26 27 28 30 31 32 32 32 34 36 38 39 39 40 37 38
23 21 19 19 18 17 17 17 17 17 17 17 17 17 18 18 18 19 20 21 23 25 27 28 29 30 32 32 34 33 35 38 38 38 39 40 35 32
23 22 21 21 19 18 19 19 19 19 19 19 19 20 20 21 21 21 22 24 25 25 26 27 29 31 33 34 33 34 34 33 36 35 36 36 36 29
24 24 23 23 22 21 21 22 22 22 21 20 21 23 23 24 24 25 26 26 27 26 26 27 29 32 33 35 34 29 35 35 36 35 35 35 33 30
27 27 26 25 24 24 25 25 24 24 24 23 24 25 26 27 27 27 28 29 29 27 26 28 30 32 34 35 32 29 28 32 34 34 33 32 30 26
29 29 29 28 28 28 28 27 26 27 27 26 26 27 29 29 31 31 32 32 31 28 27 27 30 32 34 35 32 31 28 28 31 33 32 33 32 27
31 31 31 31 31 30 30 30 30 30 30 29 29 31 34 36 36 36 35 32 30 29 28 28 29 31 32 33 33 32 29 29 29 27 26 29 30 29

GFSNE_700_spd_102.txt.gz
Wind_Speed
29 31 33 35 37 39 41 42 43 40 41 38 34 30 30 30 29 30 28 28 29 29 27 25 23 24 22 23 23 22 21 20 19 20 21 22 22 23
30 32 37 40 42 42 42 41 39 32 39 36 34 31 31 31 30 29 29 26 25 25 23 22 23 20 20 20 18 18 19 21 22 23 24 26 27 27
37 38 40 40 39 38 36 35 32 40 35 39 37 34 30 30 29 27 25 23 23 21 20 19 17 17 16 17 18 20 22 24 25 26 26 28 28 27
41 41 40 37 36 35 33 32 34 33 38 39 39 35 30 28 25 23 23 19 16 15 14 14 14 16 17 19 21 22 24 25 26 25 25 24 22 19
43 42 40 37 34 33 35 35 33 31 35 40 36 31 29 25 21 18 15 13 12 12 13 14 17 19 20 21 23 23 24 23 23 21 19 18 19 19
44 41 38 36 35 33 34 36 29 39 41 35 31 28 24 22 18 14 13 12 14 15 15 18 20 21 21 22 22 21 20 18 18 18 18 19 19 20
39 38 37 36 36 35 34 34 36 34 32 30 28 24 20 18 15 15 14 15 16 18 18 19 21 20 19 19 17 16 16 18 18 18 19 20 21 21
36 36 36 36 35 33 32 31 30 30 30 26 23 20 18 16 15 17 16 17 17 19 19 18 18 18 16 14 13 15 17 18 19 20 21 22 23 23
35 35 35 35 33 31 29 30 30 29 26 22 19 16 16 16 16 18 17 18 17 16 17 17 16 14 13 12 14 15 17 19 21 22 23 24 24 25
36 35 33 32 30 29 28 27 27 24 20 18 17 16 17 16 17 18 17 17 16 15 16 15 14 12 12 14 15 17 19 21 23 24 25 26 26 27
34 32 29 28 27 25 23 22 20 19 18 17 17 16 17 16 17 17 16 15 15 16 14 13 13 13 14 15 17 20 22 24 25 26 28 29 30 29
26 25 24 23 21 20 17 18 18 18 17 17 15 17 17 16 16 16 15 15 15 15 14 14 14 15 15 17 19 22 24 26 27 29 31 33 33 33
21 20 20 18 18 17 17 18 18 17 16 15 15 16 16 15 15 15 15 15 15 15 16 15 16 17 18 19 22 24 26 28 30 31 33 34 35 36
18 18 19 18 18 18 17 18 17 16 15 15 16 16 15 16 15 15 15 16 16 15 17 17 17 19 20 20 23 25 28 30 32 33 34 36 36 37
17 18 18 18 18 18 17 18 16 14 15 16 15 15 15 15 15 15 16 17 16 16 16 18 20 21 22 22 23 26 27 30 32 34 35 36 36 37
20 21 20 19 18 18 17 17 15 15 16 15 14 14 15 15 15 16 16 16 16 17 19 20 21 22 24 24 24 25 30 30 32 34 35 34 34 35
23 20 20 19 19 18 17 17 16 16 15 14 14 15 15 15 15 15 15 16 17 18 20 21 23 25 25 24 24 28 29 31 34 33 34 33 31 33
23 21 21 21 20 19 18 18 17 17 16 15 15 16 16 16 16 16 17 17 19 20 21 23 24 24 23 23 26 28 30 32 33 32 34 35 29 29
24 23 22 22 21 20 20 19 19 18 17 17 17 17 18 19 18 19 19 20 22 23 24 25 26 25 22 23 24 31 30 32 30 29 32 32 30 28
24 22 22 22 22 22 22 21 21 20 20 20 19 20 21 22 22 23 22 22 24 26 28 29 28 26 24 25 23 26 33 32 32 31 31 29 29 28
27 25 25 26 25 25 24 24 24 24 23 23 23 24 25 25 25 26 25 25 27 29 30 31 29 27 26 26 25 24 26 31 32 32 30 29 26 23
28 26 27 27 28 28 28 28 27 27 27 26 27 28 27 27 27 28 29 31 32 32 32 30 29 28 28 28 27 27 25 26 31 32 31 32 30 24
26 30 26 29 32 31 30 30 30 30 30 30 31 31 31 30 30 34 33 34 34 33 30 29 28 27 27 28 29 27 27 26 28 27 26 30 30 29

GFSNE_700_spd_105.txt.gz
Wind_Speed
13 13 20 26 32 34 34 33 36 42 44 41 37 28 35 29 29 30 30 29 30 30 29 27 25 23 21 20 21 21 22 20 19 18 18 19 19 19
20 22 24 29 31 33 36 38 40 39 39 36 38 34 34 33 32 32 32 30 30 28 26 25 23 20 20 18 19 17 17 17 18 20 21 22 21 21
24 27 31 34 36 36 36 37 36 35 35 35 31 39 35 39 31 31 31 29 27 25 25 22 19 17 16 15 15 16 18 19 20 21 22 22 22 21
31 34 37 38 39 39 38 36 33 33 31 31 37 35 38 34 34 31 28 25 27 21 18 15 13 13 13 15 16 17 18 20 21 21 20 20 19 17
38 40 42 43 45 42 39 35 34 34 33 31 32 38 35 34 33 28 25 21 18 15 12 12 13 15 15 16 18 19 20 19 18 17 17 17 17 17
43 44 46 46 44 41 38 35 34 35 33 34 30 35 39 34 29 25 22 19 15 13 13 14 16 16 17 18 19 19 18 16 13 14 16 16 17 18
46 46 44 41 40 37 35 35 35 35 35 32 35 35 34 30 25 21 20 17 14 15 15 17 17 17 17 18 17 16 14 12 12 14 15 16 18 19
40 39 38 37 36 35 34 34 35 36 35 35 33 31 28 27 22 19 18 16 15 16 17 17 17 16 16 16 14 13 12 12 13 14 15 17 19 20
40 38 38 37 37 36 36 36 35 35 35 31 30 27 24 23 19 17 18 16 16 16 16 16 15 15 15 14 13 13 13 13 14 15 17 19 21 22
40 39 37 36 37 37 36 36 34 32 31 29 25 23 21 19 17 18 18 17 16 15 15 15 15 14 14 14 14 14 15 16 17 19 20 23 24 25
35 35 35 34 34 33 33 31 29 27 25 22 21 20 19 19 17 18 17 16 15 14 14 14 14 14 14 15 16 15 17 18 20 22 23 25 27 28
28 29 29 29 27 27 27 24 23 21 19 19 18 18 19 18 17 17 16 15 15 14 14 14 13 14 15 16 16 18 19 21 23 24 26 28 30 30
25 23 23 23 21 20 21 19 19 18 19 18 17 18 17 17 16 16 15 15 14 14 14 14 14 14 15 16 18 19 21 23 25 27 28 29 31 32
20 19 18 18 17 18 18 18 18 19 18 17 16 17 16 16 15 15 15 14 14 15 15 15 15 14 14 17 19 21 22 24 26 27 28 30 31 33
18 17 17 17 17 18 18 18 19 18 17 16 15 17 17 15 15 15 15 15 14 15 15 15 15 15 17 19 20 22 24 27 26 28 28 29 31 33
18 17 17 18 19 19 19 19 19 17 17 16 16 17 16 15 15 15 15 14 14 15 16 16 16 17 18 20 21 23 24 24 28 28 27 28 30 31
18 19 20 21 21 20 20 20 18 17 17 16 16 17 16 16 16 16 15 14 15 16 16 16 17 18 19 21 22 23 23 25 27 27 28 25 28 30
19 20 24 26 21 20 20 20 19 18 18 17 18 18 17 16 16 17 16 16 17 17 19 19 19 19 20 22 23 24 25 26 28 28 29 25 23 28
19 22 24 23 23 24 21 19 19 19 20 20 19 18 18 18 18 19 18 18 19 20 22 22 22 22 22 22 25 25 26 27 26 28 28 27 25 25
22 23 25 24 23 23 23 24 23 22 22 22 21 21 21 21 21 22 21 21 22 23 25 26 27 27 25 24 23 26 28 27 26 26 26 25 25 25
22 23 24 28 25 27 26 24 24 24 24 23 23 24 24 24 24 25 25 25 25 25 27 31 33 32 28 26 23 22 27 30 30 28 28 25 23 20
21 21 23 28 31 30 28 29 28 27 26 26 26 26 27 27 26 28 29 29 29 28 32 34 36 34 30 28 25 21 23 27 30 28 30 30 26 21
23 22 24 25 33 32 29 31 28 28 29 29 29 29 29 29 30 30 32 32 33 34 37 36 35 34 31 29 27 23 23 25 27 25 27 32 30 29

GFSNE_700_spd_108.txt.gz
Wind_Speed
27 24 29 39 37 19 20 23 30 37 38 39 39 37 33 31 32 31 32 32 32 31 30 30 29 26 25 22 19 20 24 24 21 21 17 16 17 17
8 8 12 18 22 26 27 29 32 36 41 40 39 29 38 32 31 35 33 29 32 31 31 29 25 23 22 21 20 19 18 16 16 16 16 17 17 18
20 23 25 26 28 30 32 33 34 35 38 38 37 36 35 28 32 35 35 31 32 32 28 26 24 22 20 18 17 16 15 15 16 17 17 17 17 15
25 28 30 32 34 34 36 37 38 39 40 37 37 36 31 29 36 35 32 34 32 29 25 24 19 17 15 13 13 14 15 16 17 17 17 16 13 14
33 34 35 38 40 41 42 43 43 44 41 37 36 34 36 31 34 34 34 34 30 26 21 18 14 13 13 13 15 15 16 16 16 15 13 12 12 13
35 37 40 42 43 44 46 46 45 43 38 38 37 36 36 31 31 38 37 32 27 22 18 15 15 15 15 16 16 17 17 15 14 11 11 11 11 13
39 41 42 43 44 43 42 41 40 39 39 37 37 38 37 34 35 35 34 28 23 21 18 17 18 17 18 18 17 17 15 13 11 10 10 10 12 13
38 40 41 42 42 42 42 40 39 39 39 39 39 33 30 35 36 34 29 23 21 21 19 20 19 18 18 18 16 15 14 12 12 11 12 13 14 15
41 42 43 44 44 43 42 42 41 39 39 39 35 38 36 32 30 28 25 22 21 20 20 19 19 18 18 17 15 14 13 13 13 14 15 16 17 19
40 41 41 41 42 41 40 41 40 39 37 38 37 33 30 29 26 24 22 20 19 20 19 18 18 17 18 15 14 14 14 15 15 16 17 18 20 22
39 39 38 38 37 38 36 36 37 37 34 33 32 30 27 25 22 22 21 19 20 19 17 17 18 17 16 15 15 16 16 17 17 18 19 20 22 24
38 38 37 34 31 30 32 32 30 30 28 26 25 24 22 21 21 21 19 19 19 19 17 17 17 16 16 16 16 17 18 19 19 20 21 22 24 25
34 34 32 28 26 25 26 26 25 24 20 20 20 20 20 20 21 19 19 18 18 19 17 17 17 17 17 17 17 19 20 20 21 21 23 24 26 27
31 31 28 24 21 18 19 20 19 18 18 18 19 19 19 20 20 19 17 18 18 18 16 17 18 18 18 18 19 20 22 22 22 23 24 24 27 29
31 29 24 19 18 17 17 16 16 17 17 18 18 18 18 19 19 18 17 18 18 18 17 17 19 19 19 20 20 22 24 23 23 25 23 25 28 28
28 24 21 17 16 16 18 18 18 18 17 17 17 17 17 19 18 18 17 19 18 17 17 18 19 19 19 20 22 24 24 25 24 24 23 26 27 29
21 20 20 18 19 21 23 20 18 18 18 17 14 16 21 20 19 18 18 18 18 18 17 18 18 18 19 20 22 24 24 25 26 26 24 24 27 29
21 20 21 20 22 24 23 20 19 18 18 17 21 23 21 20 19 18 18 18 18 18 18 19 19 19 20 22 23 25 26 27 28 26 26 23 24 30
21 21 21 21 23 24 26 24 21 21 22 23 25 21 21 21 19 20 19 19 20 21 21 22 21 21 22 24 26 28 28 28 28 27 27 26 23 26
20 21 20 22 24 25 25 28 27 25 21 22 21 24 24 23 22 22 22 22 23 24 24 24 24 23 25 28 29 32 33 30 29 28 27 26 26 26
22 20 22 23 24 25 27 26 25 29 25 26 26 27 26 25 25 25 26 26 26 26 26 27 28 27 28 31 32 33 33 33 31 28 27 25 25 24
25 24 23 24 25 25 29 32 31 26 29 29 29 28 28 27 27 28 29 29 28 28 28 31 32 32 31 35 33 32 29 32 33 29 29 27 26 23
22 23 25 26 27 27 28 33 32 32 30 30 31 31 29 31 33 32 32 31 28 30 31 33 36 36 39 39 34 31 30 32 31 31 30 31 29 26

GFSNE_700_spd_111.txt.gz
Wind_Speed
33 29 25 26 22 23 30 35 24 24 24 19 26 29 32 34 36 32 32 31 30 30 30 30 29 26 26 24 21 22 19 17 20 22 20 17 15 15
8 7 11 18 18 20 21 23 25 27 30 30 31 32 35 36 34 34 31 27 37 30 30 31 28 27 23 21 20 19 22 22 18 17 15 14 14 15
13 16 18 20 21 23 26 28 29 30 33 36 36 35 37 38 35 31 25 30 31 31 32 31 28 24 22 21 19 17 16 16 14 15 14 14 14 13
23 26 28 24 25 28 32 33 36 37 39 41 43 41 40 39 39 37 31 27 33 33 31 29 25 21 19 17 15 13 13 13 14 15 15 15 12 9
27 28 29 31 33 35 37 40 41 41 42 44 44 44 43 39 37 31 35 29 31 32 32 27 22 18 15 13 13 13 14 15 15 16 15 12 9 8
28 30 32 35 37 39 41 42 44 45 46 46 45 44 42 38 38 30 35 30 32 35 30 26 21 16 15 15 15 16 17 16 16 16 13 10 9 8
32 34 36 37 38 39 40 41 41 42 42 42 41 40 41 40 33 32 37 36 33 31 27 23 20 17 17 17 19 18 18 17 16 15 13 11 9 9
32 35 37 39 41 42 43 44 43 43 42 42 40 39 38 38 36 38 34 34 35 31 27 22 20 19 18 20 20 18 17 17 16 15 13 12 12 12
35 37 38 40 41 41 42 43 43 42 42 41 40 38 37 31 31 36 34 33 31 28 24 21 20 20 20 20 18 18 17 16 16 15 14 15 14 14
36 37 38 40 41 41 41 40 38 38 38 38 38 37 35 36 36 35 31 29 27 24 23 21 21 21 20 18 18 17 17 16 16 15 16 16 16 17
38 40 40 41 42 42 40 37 35 33 33 34 35 35 34 33 31 28 27 26 23 22 22 22 21 21 19 18 17 16 16 16 16 17 17 17 18 19
35 37 37 38 40 40 39 34 31 29 28 28 28 29 29 28 25 24 23 22 21 22 22 22 20 20 19 18 17 17 17 18 18 19 19 20 20 20
35 34 34 35 37 38 36 29 27 25 23 22 21 21 21 21 21 21 20 21 21 22 22 22 19 20 19 18 17 17 18 19 20 20 21 22 22 22
37 34 32 33 35 37 30 23 19 18 17 16 15 16 18 19 19 19 19 20 20 21 22 21 20 20 19 19 17 18 20 21 21 22 22 23 24 25
35 33 30 31 31 29 23 17 16 15 14 16 16 17 17 18 19 19 19 19 19 20 22 21 20 20 20 19 18 19 20 21 22 23 24 25 27 26
29 27 28 30 24 22 19 18 18 18 18 18 18 18 18 18 18 18 18 17 19 21 23 21 20 20 19 19 19 20 21 21 22 24 25 26 28 27
26 25 27 22 22 21 21 20 22 22 19 18 18 18 18 17 17 17 16 18 20 24 22 21 20 19 19 19 20 21 20 21 23 24 25 27 30 29
25 23 22 21 20 21 22 23 23 22 19 20 19 20 18 18 16 17 17 20 23 23 22 20 20 19 19 19 20 21 20 22 24 27 28 27 29 32
22 21 22 22 21 22 23 24 23 25 24 21 21 19 21 19 23 22 22 24 23 23 21 20 21 21 20 21 22 22 25 30 30 31 31 30 26 29
23 21 21 22 24 23 25 24 24 26 26 25 28 29 25 24 20 23 25 25 25 24 23 22 23 23 23 23 23 27 28 29 30 32 31 30 29 28
25 23 23 23 25 26 27 27 27 27 29 34 28 26 26 26 27 26 28 27 27 26 24 24 28 26 24 25 25 28 34 37 36 32 29 28 28 27
24 24 24 25 27 28 29 28 29 30 31 28 33 30 25 28 27 27 27 29 29 28 27 29 31 28 26 27 28 32 35 38 40 34 29 29 28 26
26 25 24 24 25 27 30 29 29 28 32 33 32 31 30 33 29 31 34 33 30 31 30 31 33 31 33 34 33 35 37 39 37 35 31 32 28 26

GFSNE_700_spd_114.txt.gz
Wind_Speed
27 27 24 31 33 20 23 28 29 25 20 19 22 22 15 18 21 26 28 29 30 31 24 29 26 27 23 22 22 21 22 25 24 21 22 24 21 17
14 11 14 13 16 21 22 24 29 22 24 22 23 24 23 24 27 31 32 32 34 29 30 29 28 29 26 23 19 18 21 18 17 16 14 15 14 13
14 15 17 19 19 21 23 21 25 26 30 31 31 31 33 33 33 33 33 33 31 24 32 31 31 27 26 23 20 18 17 17 17 15 14 13 13 13
22 24 25 26 28 26 25 28 30 34 38 38 38 37 37 37 38 37 37 32 31 29 26 33 28 27 24 21 17 15 14 13 14 13 14 14 13 12
27 29 28 28 29 29 31 33 34 37 40 43 43 44 43 42 40 38 37 33 33 31 28 30 28 32 24 19 16 13 11 12 13 14 15 15 13 12
25 25 26 29 30 32 33 35 37 38 40 41 42 43 42 40 39 37 33 29 32 30 28 31 30 29 22 18 15 15 14 14 15 16 17 15 14 13
27 28 30 31 32 33 34 36 37 39 40 42 43 43 42 40 37 36 36 32 28 33 33 32 29 27 22 20 18 18 17 16 17 18 17 16 16 14
29 29 30 32 33 35 37 38 38 39 40 41 42 42 41 39 38 35 33 32 34 37 32 29 30 25 22 21 19 20 20 18 18 18 18 18 17 15
29 30 31 33 34 35 37 38 40 40 39 38 38 38 38 36 35 31 32 25 28 30 29 29 25 24 23 22 21 21 19 18 18 18 18 18 17 16
30 30 32 35 36 37 37 38 38 39 38 37 34 32 32 31 30 28 28 33 35 35 29 25 23 23 22 21 20 21 18 18 18 18 18 18 18 17
33 35 36 36 36 34 35 37 37 38 37 34 31 29 29 30 30 32 35 36 34 28 25 23 21 22 21 19 19 20 19 18 18 18 18 18 18 18
38 38 37 31 32 34 35 36 36 37 34 30 26 24 25 26 28 30 30 28 25 23 22 21 20 21 21 18 19 20 19 18 18 18 19 18 18 19
36 35 35 33 33 33 33 35 35 34 29 25 22 19 19 20 20 20 21 20 20 21 20 20 18 19 18 17 20 20 18 19 19 19 19 19 19 20
29 29 30 30 30 29 30 32 32 29 24 19 19 17 16 15 15 16 16 17 18 19 18 18 17 18 17 20 20 19 19 20 19 19 19 18 19 21
25 28 29 30 26 27 29 28 26 22 17 17 17 17 16 14 14 16 16 17 18 17 16 19 16 16 22 19 19 19 20 20 19 18 18 19 21 22
25 26 28 26 26 28 26 25 23 22 19 19 20 20 17 16 15 16 17 17 17 17 18 17 15 22 20 20 19 20 21 19 19 20 19 20 22 22
27 26 26 25 25 25 25 24 22 22 21 21 22 21 17 18 16 17 17 18 17 16 15 14 20 22 20 20 20 21 20 19 20 19 19 20 22 24
27 24 24 25 24 24 24 24 23 23 23 23 23 22 20 20 18 16 16 17 18 17 18 21 23 21 20 21 20 20 19 19 19 19 20 24 26 28
26 23 24 25 25 24 23 24 23 24 24 23 25 23 22 21 20 19 21 19 19 21 21 22 20 20 20 20 21 20 21 21 21 21 21 22 24 31
29 27 25 26 26 25 24 24 24 24 24 25 25 28 27 24 23 23 28 26 30 24 20 21 21 22 23 23 21 22 24 24 22 25 27 26 26 26
27 26 25 24 24 25 26 27 26 26 25 25 26 29 30 30 30 33 27 26 27 24 23 24 27 27 25 23 24 25 27 26 26 30 32 31 30 27
23 23 24 24 23 23 24 26 27 27 27 27 26 27 29 31 33 27 28 31 29 24 26 29 30 28 27 27 28 28 29 28 31 33 36 34 33 29
26 25 24 23 25 26 24 24 25 25 26 26 26 27 30 27 34 31 29 30 27 27 27 28 30 31 30 29 31 31 30 34 38 38 35 36 36 31

GFSNE_700_spd_117.txt.gz
Wind_Speed
27 28 27 27 29 24 26 29 34 27 28 28 32 28 22 21 21 18 23 19 24 24 27 27 29 31 26 26 26 23 23 26 27 28 26 26 25 24
16 15 14 13 12 13 17 19 24 26 26 20 21 23 26 24 22 27 29 27 27 28 27 30 29 30 28 28 26 24 22 21 22 23 23 20 17 16
18 16 16 17 18 20 22 23 24 25 26 27 28 29 30 32 33 33 33 32 32 32 32 32 27 27 30 31 26 25 21 21 19 19 18 17 15 13
22 20 22 23 25 26 26 27 27 28 31 33 34 34 35 36 37 37 37 37 34 33 30 29 26 26 30 28 26 24 20 19 20 19 18 17 14 14
22 25 26 28 29 28 28 28 29 31 33 36 37 37 38 38 38 37 35 34 34 30 31 27 27 27 27 25 25 23 18 18 17 18 17 16 14 16
25 25 25 26 26 27 28 30 31 32 34 35 37 39 40 40 39 38 37 35 32 30 26 30 28 26 28 28 24 21 17 18 16 17 18 17 16 17
23 24 25 26 28 29 30 31 31 32 34 35 36 37 38 39 39 39 37 34 31 29 26 21 26 27 30 28 24 22 20 19 19 19 20 18 18 18
25 26 27 28 29 30 30 30 29 30 32 33 35 37 37 38 38 37 34 30 26 27 26 25 32 34 30 28 24 23 22 21 21 20 21 20 20 20
26 27 28 28 28 29 32 34 32 31 32 32 33 34 34 34 34 33 32 28 33 34 27 25 28 28 30 27 24 24 23 22 20 20 21 20 21 22
27 26 28 29 30 33 35 34 31 30 31 33 33 34 33 30 29 28 27 26 27 23 25 31 34 35 28 24 23 23 22 22 21 20 19 21 22 22
27 28 30 34 33 32 32 31 29 29 30 32 33 33 32 28 27 27 26 27 27 29 34 37 35 28 24 23 22 21 21 21 20 19 20 21 22 22
30 32 32 33 29 26 26 26 26 27 30 30 31 30 27 24 24 25 27 29 31 33 33 30 25 20 20 20 20 19 19 19 17 19 19 21 21 21
33 32 31 25 23 22 22 23 23 26 28 30 30 27 23 21 20 20 20 21 23 25 22 20 18 18 18 17 18 17 16 17 19 19 19 20 20 21
33 27 22 21 23 23 23 23 24 26 27 27 26 23 20 18 18 17 17 17 16 16 17 17 16 17 17 15 16 15 18 18 18 19 20 20 20 21
23 20 20 22 23 24 24 25 25 25 24 24 22 21 19 17 15 15 15 15 15 15 15 16 16 16 17 17 15 19 21 18 19 19 19 19 20 21
19 19 21 24 24 25 26 25 25 24 23 21 20 18 18 18 18 16 17 17 17 17 17 17 15 17 18 15 17 21 20 19 18 20 19 20 21 21
21 22 24 25 25 26 26 25 25 24 23 21 19 18 18 19 20 19 18 19 18 18 17 17 18 18 17 18 20 20 20 20 21 20 20 19 20 20
22 24 24 25 25 26 25 25 25 24 23 21 20 20 19 21 21 20 19 20 19 18 17 17 16 18 20 20 21 21 20 21 21 20 19 18 19 20
23 24 25 26 26 26 25 24 24 24 21 21 20 21 22 21 22 20 20 21 20 18 19 20 21 22 21 23 22 21 20 21 20 20 21 20 20 20
30 29 26 26 26 27 26 24 23 23 22 21 21 22 22 22 24 26 25 25 24 23 23 22 24 24 23 22 19 19 20 21 21 22 23 22 23 25
31 29 24 22 23 24 24 23 23 23 23 22 23 23 23 22 23 26 28 29 30 29 30 27 32 26 23 20 19 21 23 23 22 24 25 26 26 30
32 27 23 22 22 24 25 24 23 23 24 23 23 24 23 22 22 24 29 34 36 34 28 31 31 30 26 25 24 24 26 26 26 26 26 26 29 32
28 26 25 26 24 23 22 22 22 23 24 24 23 23 23 23 22 22 22 27 32 29 28 32 33 29 26 26 27 27 27 28 30 30 29 29 34 33